[{"header": {"dx": 0.06612293990616946, "dy": 0.0552356325346848, "nx": 98, "ny": 59, "la1": 35.046912555036876, "la2": 31.78801023549047, "lo1": -121.43107172385933, "lo2": -114.95102361305473, "refTime": "2026040822", "parameterCategory": 1, "parameterNumber": 2}, "data": [8.15, 8.15, 8.15, 8.45, 8.45, 9.3, 9.3, 8.94, 9.3, 9.86, 9.5, 9.48, 10.63, 10.18, 9.97, 10.58, 11.14, 10.12, 7.67, 1.58, 0.0, 0.0, 0.0, 0.0, 0.0, 0.0, -0.89, -0.89, -1.98, -1.84, -0.96, -1.05, 0.0, 0.0, 1.99, 3.47, 4.58, 5.37, 5.37, 6.11, 7.07, 8.18, 9.48, 10.61, 11.88, 12.27, 13.51, 12.89, 11.9, 11.26, 10.55, 10.18, 10.14, 9.8, 10.28, 10.25, 10.25, 10.14, 9.97, 9.97, 9.49, 8.72, 8.3, 7.76, 7.2, 7.2, 7.2, 7.53, 8.06, 8.06, 7.63, 6.94, 6.02, 5.73, 5.73, 6.2, 6.17, 4.02, 3.13, 2.68, 3.13, 3.58, 2.84, 2.84, 2.8, 3.13, 4.57, 5.6, 4.58, 2.67, 1.75, 1.75, 2.69, 4.12, 4.96, 5.36, 6.64, 6.64, 8.15, 8.15, 8.15, 8.73, 8.45, 9.02, 9.3, 9.3, 9.3, 9.3, 9.21, 10.29, 10.0, 9.74, 11.03, 10.91, 9.97, 11.35, 8.4, 3.55, 0.0, 0.0, 0.0, 0.0, 0.0, 0.0, -0.95, -0.95, -1.84, -1.84, -1.03, -0.96, 0.0, 0.96, 1.98, 3.97, 4.68, 5.53, 5.1, 5.89, 6.95, 8.82, 9.76, 10.58, 12.22, 12.84, 12.87, 11.25, 10.01, 10.04, 9.42, 9.75, 9.97, 9.72, 9.81, 10.28, 10.28, 10.25, 10.25, 9.7, 9.68, 9.06, 8.56, 8.06, 8.06, 8.06, 7.63, 7.63, 8.06, 8.56, 8.77, 8.0, 6.71, 5.81, 5.81, 6.26, 5.81, 4.02, 3.13, 2.68, 3.13, 3.58, 2.84, 2.84, 2.8, 3.13, 4.57, 5.6, 4.58, 2.67, 1.75, 1.75, 2.69, 4.12, 4.96, 5.36, 6.64, 6.64, 8.15, 8.15, 8.15, 8.45, 8.45, 9.02, 9.02, 9.3, 9.5, 9.3, 8.65, 7.09, 9.43, 10.0, 9.74, 10.18, 10.68, 11.11, 10.08, 6.32, 1.84, 0.0, 0.0, 0.0, 0.0, 0.0, -0.89, -0.95, -0.89, -0.89, -0.89, -0.89, 0.0, 0.0, 2.64, 4.37, 4.5, 5.36, 6.04, 6.42, 7.44, 9.1, 10.65, 11.59, 12.33, 12.09, 10.92, 9.34, 8.42, 8.43, 8.8, 9.13, 9.49, 9.68, 9.26, 9.8, 9.83, 9.83, 9.83, 9.79, 9.35, 9.24, 8.77, 8.77, 8.14, 8.06, 8.29, 8.29, 8.33, 8.77, 9.24, 8.49, 7.1, 5.51, 5.26, 5.81, 5.36, 4.02, 1.79, 2.24, 3.2, 4.02, 3.58, 3.13, 2.8, 3.22, 4.19, 4.74, 3.77, 1.95, 1.75, 1.75, 3.45, 4.12, 5.36, 6.32, 7.06, 6.73, 8.15, 8.15, 7.86, 8.45, 8.45, 9.02, 9.02, 9.3, 9.86, 9.5, 8.65, 7.17, 9.4, 9.27, 10.0, 10.0, 10.55, 10.8, 10.85, 8.43, 3.6, 1.4, 0.0, 0.0, 0.0, -1.47, -0.94, -0.89, 0.0, 0.0, 0.0, 0.0, 0.0, 0.0, 2.69, 4.2, 4.88, 6.5, 5.86, 7.38, 8.99, 11.19, 11.48, 11.29, 10.75, 10.58, 9.66, 8.82, 8.21, 8.17, 7.89, 8.56, 8.77, 9.24, 9.35, 9.35, 9.83, 9.83, 9.39, 9.39, 9.35, 9.35, 8.77, 8.77, 8.77, 8.33, 8.33, 7.89, 8.36, 8.82, 9.7, 8.49, 5.6, 2.53, 3.48, 5.4, 4.92, 2.68, 2.24, -0.0, 2.8, 4.34, 3.72, 2.4, 1.98, 3.55, 3.77, 3.77, 2.67, 1.84, 1.84, 2.83, 3.6, 4.5, 6.32, 7.15, 7.15, 6.01, 8.15, 7.86, 7.86, 8.45, 8.45, 8.78, 9.02, 9.59, 9.86, 9.5, 8.38, 7.23, 8.31, 9.58, 9.6, 10.4, 10.23, 10.63, 10.63, 9.65, 6.3, 1.47, 1.4, 0.0, 0.0, 0.0, 0.0, 0.0, 0.0, 0.0, 0.0, 0.0, 0.0, 0.0, 1.33, 2.71, 3.92, 6.08, 6.52, 7.32, 8.99, 10.25, 10.43, 10.58, 9.96, 9.67, 9.42, 9.36, 9.24, 9.06, 9.24, 9.35, 9.39, 9.39, 9.39, 9.83, 9.39, 9.39, 9.39, 8.9, 8.9, 8.9, 8.77, 8.77, 8.77, 8.77, 8.33, 8.29, 8.77, 8.56, 8.99, 7.37, 2.21, 0.0, 1.84, 3.48, 4.34, 2.68, -2.68, 1.34, 2.68, 3.72, 2.99, 1.96, 2.83, 2.54, 3.8, 3.6, 3.4, 2.67, 1.84, 2.67, 3.6, 5.53, 7.15, 7.44, 6.79, 5.53, 8.15, 7.86, 7.86, 8.19, 8.45, 8.78, 9.02, 9.59, 9.59, 9.86, 8.73, 6.92, 7.97, 9.2, 10.17, 10.0, 10.04, 10.43, 10.04, 10.04, 7.27, 2.57, 1.39, 0.0, 0.0, 0.0, 0.0, 0.0, 0.0, 0.0, 0.85, 0.85, 1.62, 2.49, 2.28, 2.39, 3.51, 6.0, 6.31, 6.47, 7.23, 8.2, 8.42, 9.62, 10.66, 10.04, 10.0, 10.18, 9.97, 10.14, 10.25, 9.83, 9.83, 9.8, 9.8, 9.8, 9.8, 9.35, 9.35, 8.9, 8.45, 8.0, 8.29, 8.33, 8.77, 8.77, 7.85, 7.85, 7.85, 8.06, 7.76, 6.21, 3.72, 1.9, 2.21, 3.58, 3.82, 3.2, 2.24, -2.68, -0.0, 1.08, 1.98, 1.96, 1.96, 2.82, 3.55, 3.77, 3.55, 2.82, 2.67, 2.67, 4.42, 5.69, 6.79, 7.2, 5.69, 4.5, 8.15, 7.86, 7.86, 8.19, 8.45, 8.78, 9.02, 9.37, 9.94, 9.94, 8.73, 6.28, 7.68, 9.03, 10.62, 10.32, 10.96, 10.8, 10.04, 9.92, 8.65, 5.06, 1.68, 0.89, 0.0, 0.0, 0.0, 0.0, 0.0, 0.0, 0.0, 0.85, 3.36, 5.06, 4.5, 3.21, 3.49, 5.1, 5.2, 4.81, 4.89, 4.81, 6.08, 8.24, 9.42, 9.43, 9.65, 10.32, 10.18, 10.91, 10.66, 9.8, 10.28, 10.28, 10.28, 10.28, 9.83, 9.83, 9.39, 8.9, 8.0, 7.42, 8.29, 8.29, 8.33, 8.33, 8.0, 7.55, 7.55, 7.37, 7.12, 6.6, 5.15, 4.11, 3.22, 2.99, 3.79, 4.4, 1.27, -0.0, -1.41, -0.0, -0.0, 0.96, 1.84, 2.4, 2.99, 3.91, 3.0, 2.64, 2.35, 3.33, 4.87, 6.55, 6.82, 6.11, 4.68, 3.45, 7.55, 8.15, 7.86, 7.86, 8.45, 8.78, 9.02, 9.37, 9.94, 9.94, 8.15, 5.69, 6.64, 9.2, 10.55, 9.74, 10.8, 11.2, 10.87, 10.66, 10.04, 6.88, 4.07, 2.71, 1.76, 1.22, 0.0, 0.0, -1.28, -1.18, 0.0, 0.0, 3.82, 5.4, 5.28, 4.0, 3.27, 3.79, 3.79, 1.33, 2.62, 3.82, 4.72, 5.92, 6.58, 7.27, 7.76, 9.42, 9.42, 10.21, 9.49, 9.97, 10.58, 10.25, 10.25, 10.28, 10.28, 9.83, 8.94, 8.49, 8.0, 7.55, 8.0, 8.0, 8.0, 8.44, 8.05, 7.6, 7.6, 7.1, 6.94, 6.57, 6.57, 4.89, 3.49, 3.79, 4.98, 4.29, 2.4, -0.0, -0.88, -2.0, -0.87, -0.0, 1.13, 1.98, 2.23, 2.2, 1.99, 2.16, 2.4, 3.22, 4.74, 5.84, 5.84, 4.42, 3.6, 3.45, 7.55, 7.81, 7.86, 7.86, 8.45, 8.78, 9.37, 9.08, 9.94, 9.94, 8.15, 5.1, 6.5, 7.42, 8.64, 9.76, 10.12, 10.66, 11.26, 10.79, 10.01, 7.56, 5.7, 4.6, 2.7, 1.33, 0.0, 0.0, -1.39, 0.0, 0.0, 1.25, 2.54, 3.68, 4.4, 4.34, 3.2, -0.0, -0.0, 3.13, 0.0, 2.49, 3.77, 3.87, 5.59, 5.24, 6.64, 8.18, 7.81, 8.43, 9.6, 9.24, 9.75, 10.41, 10.14, 10.14, 10.14, 9.35, 8.9, 8.49, 7.6, 7.6, 7.6, 7.6, 7.6, 8.05, 8.49, 8.0, 7.1, 7.15, 7.15, 6.66, 7.1, 5.29, 3.9, 4.77, 5.26, 4.09, 2.4, 0.82, -0.0, -2.84, -2.97, -1.58, -0.0, -0.0, -0.0, -0.0, 0.99, 1.98, 2.84, 3.48, 4.11, 4.58, 4.87, 3.77, 3.6, 4.5, 7.55, 7.81, 7.86, 7.86, 8.45, 8.78, 9.08, 9.08, 9.66, 9.66, 7.86, 6.35, 5.45, 5.72, 8.42, 8.07, 8.42, 8.72, 9.48, 9.76, 8.85, 6.97, 5.0, 4.8, 3.77, 2.58, 1.4, 0.0, 0.0, 0.0, 1.28, 1.28, 1.26, 3.72, 6.0, 6.4, 4.47, -0.0, -0.0, 1.63, 1.4, 2.2, 3.4, 4.26, 5.24, 6.11, 6.55, 7.2, 7.76, 8.17, 8.3, 8.4, 9.24, 9.75, 9.75, 9.97, 9.97, 9.49, 8.77, 7.85, 7.54, 6.71, 7.6, 6.45, 7.37, 8.49, 8.94, 7.71, 7.21, 6.7, 6.94, 7.11, 6.71, 5.81, 4.47, 4.47, 4.92, 3.82, -0.0, -0.0, 0.88, -0.0, -3.58, -3.13, -2.68, -1.79, -1.79, -0.0, -0.0, 1.58, 1.4, 0.98, 1.99, 3.0, 3.77, 3.6, 3.6, 4.26, 7.55, 7.86, 7.86, 7.86, 8.19, 8.78, 9.08, 9.08, 9.66, 9.66, 8.78, 7.3, 7.3, 7.86, 9.92, 8.93, 8.07, 4.53, 5.37, 5.88, 9.26, 7.42, 4.6, 4.4, 5.31, 4.84, 3.48, 3.79, 3.0, 1.49, 1.32, 0.0, 1.9, 3.22, 4.54, 6.4, 4.29, 2.82, 3.72, 4.29, 4.74, 4.4, 3.93, 4.14, 5.31, 5.77, 7.2, 7.63, 7.85, 8.29, 8.56, 8.99, 9.06, 9.24, 9.66, 9.9, 9.77, 8.8, 7.82, 7.12, 5.81, 4.6, 4.29, 5.24, 6.79, 8.3, 9.35, 8.56, 6.79, 5.77, 6.6, 6.7, 6.51, 5.75, 5.29, 4.66, 4.0, 1.9, -1.08, -0.0, 0.88, 0.88, -0.0, -3.58, -3.6, -2.6, -2.4, -2.24, -1.34, -0.0, -0.0, -0.0, -0.0, 1.98, 3.55, 3.77, 3.77, 4.58, 7.27, 7.86, 7.86, 7.86, 8.19, 8.78, 9.08, 9.08, 9.66, 9.66, 9.37, 7.9, 7.9, 9.08, 9.76, 10.0, 9.01, 8.0, 7.6, 8.1, 8.6, 8.48, 7.09, 7.56, 2.68, -0.0, -0.0, -0.0, 2.21, 4.02, 4.47, 2.73, 1.98, 2.6, 2.76, 3.63, 4.01, 4.29, 5.49, 5.49, 6.21, 6.0, 5.36, 5.6, 5.37, 5.49, 6.9, 7.47, 8.38, 8.38, 7.85, 8.33, 8.77, 8.77, 8.33, 8.33, 8.06, 6.55, 4.58, 2.8, 1.05, 1.84, 3.45, 5.21, 6.04, 7.35, 8.43, 8.0, 5.24, 3.6, 4.16, 5.43, 6.0, 6.16, 5.21, 4.98, 3.58, -0.0, -2.84, -0.99, -0.0, -0.0, -0.0, -2.53, -3.13, -3.6, -2.84, -2.21, -2.68, -2.97, -2.98, -1.98, -0.0, 0.96, 2.99, 3.91, 3.91, 3.91, 7.27, 7.86, 7.86, 7.86, 8.19, 8.78, 8.75, 9.08, 9.66, 9.66, 9.66, 8.5, 8.5, 9.42, 10.7, 11.88, 12.6, 12.51, 12.18, 11.74, 11.86, 12.47, 12.92, 10.71, 4.92, -0.0, -1.26, -0.95, -1.26, -0.42, 0.98, 2.6, 2.99, 2.99, 2.99, 3.47, 4.01, 5.15, 5.58, 6.16, 6.16, 6.45, 5.81, 5.26, 5.21, 4.74, 6.08, 7.47, 7.47, 7.94, 6.98, 8.01, 7.56, 6.65, 6.8, 6.08, 6.8, 5.2, -2.0, -3.22, -0.0, 1.75, 3.63, 4.34, 5.21, 5.64, 6.05, 5.36, 3.2, 0.94, 1.84, 4.58, 5.37, 4.58, 4.11, 3.58, 1.19, -0.0, -1.13, -2.4, -1.58, -1.6, -1.2, -0.0, -0.0, -3.13, -3.82, -3.39, -4.02, -4.47, -4.02, -2.97, -0.99, -0.0, 2.0, 2.95, 3.48, 3.22, 7.27, 7.86, 7.86, 7.86, 8.19, 8.45, 8.5, 9.08, 9.66, 10.01, 9.66, 9.08, 9.08, 9.42, 10.59, 12.16, 13.31, 13.81, 14.21, 14.0, 14.11, 14.2, 14.71, 13.81, 9.37, 3.53, 0.0, -0.0, -0.63, -0.95, -0.42, 1.08, 2.8, 3.63, 3.91, 3.47, 4.43, 5.58, 6.16, 6.45, 7.1, 6.71, 6.71, 6.26, 4.84, 5.21, 4.57, 7.15, 7.6, 7.6, 8.05, 8.05, 6.51, 3.2, 2.82, 3.9, 7.28, 6.26, 3.58, -2.82, -0.0, 1.33, 3.7, 4.2, 3.63, 4.2, 3.88, 3.06, 3.2, 0.0, 0.0, 1.84, 1.84, 1.27, -0.0, 0.96, 1.96, 2.82, 1.99, -0.0, -3.13, -3.13, -1.58, -1.13, -0.0, -1.19, -2.48, -3.35, -3.6, -4.92, -4.47, -3.58, -1.9, -0.0, 1.2, 2.53, 2.23, 1.19, 7.27, 7.86, 7.86, 7.86, 8.19, 8.45, 8.78, 9.08, 9.66, 10.01, 10.01, 9.66, 9.08, 9.42, 10.23, 11.35, 12.7, 13.82, 14.72, 14.9, 14.64, 14.81, 14.93, 15.02, 12.31, 6.79, 2.91, 1.79, 1.34, 1.2, 0.6, 0.43, 2.8, 4.02, 4.29, 3.91, 5.37, 5.82, 7.63, 6.71, 7.15, 8.05, 7.15, 7.15, 6.26, 4.92, 1.84, 3.0, 5.06, 6.08, 7.06, 6.64, 5.06, 2.66, 3.2, 4.74, 7.06, 6.51, 5.82, 2.69, 0.85, 2.69, 3.8, 4.0, 4.2, 4.2, 3.7, 5.21, 6.64, 6.36, 0.96, -1.01, -2.53, -1.05, -0.0, 1.75, 2.67, 4.68, 4.42, 2.95, -0.0, 2.24, -0.0, -0.0, -0.0, -0.0, -0.96, -1.99, -1.66, -2.23, -4.92, -4.02, -2.68, 1.34, -0.0, 1.08, 0.96, 0.96, 7.27, 7.86, 7.86, 7.86, 8.19, 8.45, 8.78, 9.08, 9.66, 9.66, 10.01, 10.01, 9.66, 9.66, 10.01, 10.8, 12.16, 13.48, 14.22, 14.53, 14.95, 15.11, 15.25, 15.38, 14.13, 9.68, 5.24, 4.02, 4.92, 4.47, 3.58, 2.15, 1.61, 4.02, 3.68, 3.33, 5.49, 6.57, 7.5, 7.6, 6.71, 6.71, 7.6, 7.5, 6.64, 2.66, -0.0, 1.32, 3.91, 5.37, 6.52, 6.08, 5.37, 4.29, 4.74, 6.0, 7.45, 7.89, 7.28, 4.96, 3.4, 4.14, 4.56, 4.56, 4.56, 4.83, 4.58, 6.98, 7.81, 7.89, 4.29, 0.0, -0.0, -0.0, 1.75, 3.63, 4.5, 5.24, 5.69, 4.58, 3.79, 2.0, 0.96, -0.0, 0.89, 1.75, -0.0, -1.03, -0.96, -0.0, -2.23, -2.68, -0.0, -0.0, -0.0, 0.88, 0.88, 0.88, 7.27, 7.59, 7.86, 7.86, 8.19, 8.45, 8.78, 9.08, 9.66, 9.66, 10.01, 10.23, 10.23, 9.66, 10.51, 10.7, 11.62, 12.56, 13.71, 14.03, 14.72, 14.95, 15.25, 15.46, 14.71, 12.06, 8.92, 8.03, 8.49, 8.03, 6.68, 3.98, 2.21, 4.02, 2.47, 3.33, 4.74, 6.0, 6.58, 7.15, 7.15, 5.51, 6.52, 5.82, 6.01, 3.8, 2.69, 4.14, 5.69, 6.9, 7.6, 7.6, 6.63, 6.9, 6.52, 7.45, 7.94, 7.63, 7.28, 6.01, 6.63, 5.37, 5.72, 5.72, 5.72, 5.37, 5.72, 6.44, 6.63, 6.9, 6.94, 3.33, 2.59, 3.36, 4.4, 5.21, 6.18, 6.01, 5.69, 4.87, 4.58, 3.0, 1.73, 0.76, 0.89, 1.75, 1.75, -1.03, -0.96, -0.0, -0.0, -0.0, -0.0, -0.0, 0.95, 1.52, 1.6, 1.6, 7.55, 7.27, 7.86, 7.86, 8.19, 8.45, 8.78, 9.08, 9.66, 9.66, 10.01, 10.23, 10.23, 10.23, 10.15, 10.79, 11.5, 12.56, 13.31, 13.81, 13.99, 14.64, 14.34, 14.2, 14.3, 13.85, 11.61, 10.14, 10.47, 10.04, 7.4, 3.58, 2.0, 1.61, 1.16, 1.99, 2.0, 5.09, 6.07, 6.51, 5.72, 5.37, 5.37, 6.01, 6.32, 4.96, 5.59, 5.31, 6.63, 8.0, 8.22, 8.0, 8.0, 7.6, 7.63, 7.63, 7.94, 7.63, 6.9, 6.63, 6.9, 6.9, 7.06, 6.64, 7.01, 6.17, 6.2, 7.01, 7.06, 7.28, 8.18, 6.83, 6.7, 7.13, 7.27, 7.76, 7.06, 6.01, 5.24, 4.42, 3.77, 3.77, 1.84, 1.58, 1.84, 1.84, 2.57, -0.0, -0.95, -0.0, 0.96, 0.96, -0.0, 0.79, 0.89, 1.84, 1.6, 1.6, 7.55, 7.55, 7.86, 7.86, 8.19, 8.45, 8.78, 9.08, 9.42, 9.66, 10.01, 10.23, 10.23, 10.23, 9.94, 12.26, 10.41, 11.5, 11.88, 12.6, 13.88, 14.81, 13.73, 14.87, 14.21, 15.15, 7.89, 12.3, 12.56, 7.09, 3.87, 1.79, 1.7, 1.86, 0.57, -0.0, 0.63, 1.34, 4.82, 7.01, 6.16, 6.32, 6.08, 5.37, 5.69, 6.01, 6.98, 7.07, 7.6, 8.22, 8.6, 8.22, 8.0, 7.6, 7.6, 7.63, 7.63, 6.9, 7.28, 7.6, 8.06, 7.63, 7.63, 6.65, 6.64, 6.26, 6.26, 6.71, 7.1, 8.48, 9.86, 9.43, 10.43, 10.4, 9.9, 9.24, 8.17, 6.11, 4.68, 4.26, 3.77, 2.67, 1.75, 1.58, 1.67, 1.75, 2.57, 2.44, -0.0, -0.83, -0.0, -0.0, -0.0, -0.0, 0.95, 1.98, 1.98, 1.98, 7.55, 7.55, 7.86, 7.86, 8.19, 8.45, 8.78, 9.08, 9.42, 9.66, 10.01, 10.23, 10.23, 10.23, 10.23, 10.15, 10.41, 10.04, 11.66, 12.56, 14.58, 13.51, 13.32, 14.39, 13.25, 13.52, 12.7, 6.56, 3.79, 1.7, 0.45, 0.89, 1.34, 1.49, 1.26, 0.6, 0.89, 1.34, 2.24, 3.13, 4.34, 4.6, 3.7, 3.14, 3.09, 6.9, 7.6, 8.06, 8.06, 8.6, 8.6, 7.6, 7.6, 7.28, 6.6, 6.6, 7.6, 6.07, 7.2, 8.6, 8.41, 8.38, 8.05, 8.05, 6.71, 6.26, 6.26, 6.71, 7.6, 8.45, 9.68, 11.33, 12.27, 12.49, 11.62, 9.83, 7.37, 4.74, 3.77, 3.77, 3.77, 2.67, 1.75, 1.84, 2.69, 2.31, 2.31, 2.31, 1.58, -0.0, -0.95, -0.95, -0.89, -0.0, 0.82, 1.98, 1.98, 1.98, 7.55, 7.55, 7.86, 7.86, 8.19, 8.45, 8.78, 9.08, 9.08, 9.66, 10.01, 10.23, 10.59, 10.23, 10.59, 11.07, 11.07, 9.86, 8.38, 11.25, 13.27, 11.2, 11.88, 10.96, 10.51, 10.83, 10.0, 5.89, 1.27, -0.6, -0.0, 0.63, 1.2, 1.49, 1.86, 1.49, 1.7, 1.79, 2.24, 3.58, 3.99, 4.3, 3.39, 2.68, 2.5, 6.0, 7.06, 7.63, 8.41, 8.41, 7.63, 6.9, 6.28, 6.28, 6.9, 6.21, 6.18, 6.44, 8.6, 8.94, 8.94, 8.49, 8.49, 8.05, 6.71, 6.71, 6.71, 7.15, 7.6, 8.45, 9.68, 11.06, 12.07, 11.95, 10.18, 8.06, 2.84, 2.99, 3.0, 2.82, 3.77, 2.67, 1.95, 2.18, 2.69, 2.69, 2.69, 2.44, 2.9, 0.84, -0.95, -1.98, -2.16, -0.81, -0.0, 0.88, 1.6, 1.6, 7.55, 7.55, 7.86, 7.86, 8.19, 8.45, 8.78, 9.08, 9.08, 9.66, 9.66, 10.23, 10.59, 10.8, 10.8, 11.07, 11.62, 10.96, 9.59, 9.94, 10.41, 11.08, 10.91, 10.16, 9.5, 10.3, 10.68, 8.0, 3.58, 1.7, 0.95, 0.95, 1.49, 1.86, 2.4, 2.4, 2.4, 2.4, 2.49, 2.97, 3.39, 3.39, 2.91, 2.4, 1.58, 2.68, 7.45, 8.05, 8.05, 7.21, 6.08, 5.37, 5.37, 5.37, 6.08, 6.08, 6.18, 7.2, 8.85, 8.94, 8.0, 8.33, 7.85, 7.85, 7.37, 7.1, 6.64, 6.71, 6.94, 8.48, 9.04, 10.62, 8.06, 3.93, 1.08, 1.79, -0.0, -0.0, 0.81, 1.6, 2.82, 2.67, 1.75, 1.84, 1.67, 1.75, 2.57, 2.7, 3.06, 2.31, -0.0, -0.88, -1.83, -0.88, -0.0, -0.0, 1.03, 1.03, 7.55, 7.55, 7.55, 7.86, 7.86, 8.45, 8.78, 9.08, 9.08, 9.66, 9.66, 10.23, 10.23, 10.8, 10.8, 11.44, 11.62, 11.24, 10.7, 11.07, 11.5, 12.33, 12.11, 11.39, 10.21, 9.48, 9.88, 8.3, 5.72, 4.47, 3.13, 2.6, 2.0, 2.4, 2.4, 2.68, 2.68, 3.07, 3.07, 3.2, 3.2, 3.2, 2.68, 2.4, 1.86, 2.5, 7.01, 7.6, 7.01, 5.36, 3.91, 5.37, 5.37, 6.08, 5.72, 6.08, 5.49, 6.8, 8.48, 7.55, 8.0, 7.63, 7.2, 7.2, 6.8, 6.45, 5.81, 5.94, 6.21, 6.82, 8.4, 8.55, -4.47, -5.58, -2.4, -2.24, -1.9, -1.13, -0.88, -0.0, 0.82, 0.89, 0.89, 0.85, 1.75, 1.75, 1.75, 2.7, 3.49, 4.34, 2.99, 0.82, -0.88, -1.66, -0.81, -0.0, -0.0, -0.0, 7.55, 7.55, 7.27, 7.86, 7.86, 8.45, 8.78, 9.08, 9.08, 9.66, 9.66, 10.01, 10.23, 10.59, 10.8, 11.44, 11.62, 11.62, 11.24, 11.07, 12.03, 13.02, 13.51, 13.26, 12.46, 10.91, 9.92, 7.81, 6.04, 4.89, 4.47, 3.58, 3.07, 2.49, 2.91, 3.39, 3.2, 3.2, 3.6, 3.35, 3.35, 3.35, 3.2, 2.91, 1.86, 2.17, 6.71, 7.01, 5.36, 4.29, 3.91, 5.37, 6.08, 5.72, 5.72, 5.72, 5.21, 6.21, 7.6, 7.47, 6.26, 6.02, 5.58, 5.58, 5.2, 5.26, 4.74, 5.31, 5.37, 6.82, 7.53, 8.48, 1.6, -3.72, -4.11, -4.92, -3.79, -3.22, -1.98, -0.81, -0.0, -0.0, -0.0, -0.0, 0.94, 1.67, 1.75, 3.32, 4.56, 5.21, 4.5, 3.2, 0.88, -0.81, -0.82, -0.0, -0.0, -0.0, 7.55, 7.55, 7.27, 7.86, 7.86, 7.86, 8.78, 9.08, 9.08, 9.66, 9.66, 10.01, 10.23, 10.59, 10.8, 11.16, 11.62, 11.62, 11.24, 11.07, 11.88, 12.56, 13.53, 14.23, 13.57, 13.26, 11.39, 8.3, 5.4, 4.8, 4.89, 4.92, 4.02, 3.53, 3.39, 3.39, 3.87, 3.7, 3.6, 3.6, 3.35, 3.35, 3.35, 3.2, 2.63, 2.24, 3.13, 3.87, 4.0, 3.16, 2.86, 5.37, 5.72, 5.72, 5.72, 5.72, 6.64, 5.6, 7.06, 6.9, 7.06, 5.51, 5.36, 4.92, 3.72, 2.82, 3.45, 5.1, 6.45, 7.37, 8.49, 9.39, 9.74, 4.02, -2.84, -5.36, -4.22, -3.22, -3.0, -2.6, -1.84, -1.6, -0.78, -0.0, -0.0, 0.89, 1.84, 3.45, 4.34, 4.71, 4.5, 4.03, 2.35, -0.0, -0.82, -0.0, -0.0, -0.0, 7.55, 7.55, 7.27, 7.59, 7.86, 7.86, 8.19, 8.75, 9.08, 9.66, 9.66, 10.01, 10.23, 10.59, 10.8, 11.16, 11.62, 11.62, 11.62, 11.24, 11.5, 12.03, 12.95, 13.82, 14.03, 13.81, 12.6, 10.0, 6.6, 5.24, 4.89, 5.36, 4.92, 4.44, 3.98, 3.98, 3.87, 3.87, 3.7, 3.6, 3.2, 3.6, 3.7, 3.7, 3.39, 3.13, 3.13, 3.58, 3.39, 3.2, 2.79, 3.14, 5.36, 4.29, 5.06, 6.08, 6.64, 6.4, 6.4, 6.52, 7.28, 7.6, 6.16, 4.89, 2.64, 2.69, 4.34, 5.36, 6.82, 7.85, 8.05, 9.83, 8.94, 8.05, 2.53, -4.98, -5.81, -4.8, -4.54, -3.91, -3.47, -2.29, -1.6, -0.78, -0.0, -0.0, 1.75, 3.45, 4.5, 3.91, 4.26, 3.79, 2.35, 0.83, -0.0, -0.0, -0.0, -0.0, 7.55, 7.55, 7.27, 7.27, 7.86, 7.86, 8.19, 8.78, 9.08, 9.42, 9.66, 10.01, 10.23, 10.59, 10.8, 11.16, 11.62, 11.62, 11.62, 11.5, 11.5, 11.88, 12.56, 13.31, 13.82, 14.03, 13.32, 11.21, 8.3, 5.88, 5.26, 6.23, 5.81, 5.36, 5.36, 4.92, 4.92, 4.47, 4.44, 3.98, 3.39, 3.39, 3.7, 4.11, 4.34, 4.02, 3.53, 3.09, 2.68, 2.63, 2.5, 2.21, 2.53, 2.23, 4.11, 5.21, 7.06, 6.4, 4.89, 5.58, 8.06, 7.63, 8.48, 5.49, 4.0, 3.45, 4.34, 6.79, 7.76, 8.29, 8.45, 8.49, 8.94, 8.94, 7.6, 0.0, -6.17, -6.26, -5.94, -4.89, -4.43, -2.76, -1.55, -0.82, -0.78, -0.0, 1.84, 3.6, 3.6, 3.4, 3.2, 3.2, 1.73, 0.89, -0.0, -0.0, 0.88, 0.88, 7.55, 7.55, 7.27, 7.27, 7.86, 7.86, 8.19, 8.78, 8.5, 9.42, 9.66, 10.01, 10.01, 10.23, 10.59, 10.8, 11.35, 11.62, 11.62, 11.5, 11.5, 11.5, 12.03, 12.56, 13.31, 13.53, 13.12, 11.41, 8.8, 7.01, 6.3, 6.61, 6.61, 6.23, 5.81, 5.36, 5.36, 4.92, 4.47, 3.98, 3.53, 3.53, 3.87, 4.3, 4.44, 4.02, 3.39, 2.91, 2.17, 2.17, 2.15, 2.21, 2.21, 2.21, 2.5, 4.6, 6.0, 5.36, 4.43, 5.21, 6.88, 8.0, 8.0, 5.84, 3.45, 4.88, 6.73, 7.82, 8.56, 8.9, 8.94, 8.94, 8.94, 8.94, 8.94, 7.6, 2.68, -5.81, -7.15, -6.02, -4.98, -1.58, -0.57, -0.88, -0.0, -0.0, 1.63, 2.67, 2.67, 2.82, 2.82, 2.82, 2.67, 2.26, 1.52, 0.82, 0.82, 0.82, 7.55, 7.55, 7.27, 7.27, 7.86, 7.86, 8.19, 8.78, 8.5, 9.08, 9.66, 10.01, 10.01, 10.23, 10.59, 10.8, 11.16, 11.62, 11.62, 11.24, 11.5, 11.5, 12.03, 12.42, 12.79, 12.79, 12.62, 11.41, 8.68, 6.4, 5.88, 6.36, 6.94, 6.61, 6.23, 5.79, 5.81, 5.36, 4.92, 4.02, 3.58, 3.13, 3.53, 5.73, 6.45, 3.54, 2.4, 0.65, 0.0, 1.27, 1.9, 2.21, 2.79, 2.5, 2.4, 2.91, 5.6, 4.74, 4.54, 5.6, 6.64, 8.05, 7.37, 5.69, 4.34, 5.89, 7.06, 7.82, 8.45, 8.94, 8.77, 9.21, 8.77, 8.9, 8.94, 8.9, 7.76, 2.99, -4.82, -6.71, -4.98, -1.26, -0.0, -0.0, -0.0, -0.0, 0.82, 1.84, 2.64, 2.8, 3.91, 2.8, 2.47, 2.51, 2.35, 1.52, 0.82, 0.82, 7.55, 7.55, 7.27, 7.27, 7.86, 7.86, 8.19, 8.45, 8.5, 9.08, 9.42, 9.66, 10.01, 10.23, 10.59, 10.8, 11.16, 11.62, 11.62, 11.62, 11.5, 11.5, 11.5, 12.03, 12.28, 12.28, 12.28, 11.08, 8.28, 6.51, 5.81, 6.3, 6.79, 6.79, 6.51, 6.16, 6.23, 5.78, 4.89, 4.47, 4.02, 3.58, 3.13, 2.68, 3.39, 6.64, 4.82, 0.0, 0.45, 0.8, 1.88, 2.79, 2.79, 3.07, 2.91, 2.91, 2.91, 3.07, 4.98, 5.4, 6.64, 7.6, 6.8, 5.53, 6.01, 6.45, 6.79, 8.18, 7.37, 7.54, 7.81, 8.0, 8.49, 8.49, 8.94, 8.94, 7.2, 5.36, 1.84, -4.8, -5.29, -1.34, -0.45, 0.45, -0.0, -0.0, 0.79, 1.66, 2.95, 3.93, 4.22, 3.79, 2.6, 2.67, 2.26, 1.63, 1.63, 1.63, 7.55, 7.55, 7.27, 7.27, 7.59, 7.86, 8.19, 8.45, 8.5, 9.08, 9.08, 9.42, 10.01, 10.01, 10.23, 10.59, 10.8, 11.62, 11.62, 11.62, 11.5, 11.5, 11.5, 12.03, 12.03, 12.28, 11.88, 10.91, 8.28, 6.28, 6.1, 6.6, 7.01, 7.01, 6.79, 6.51, 6.47, 6.16, 5.26, 4.89, 4.44, 3.98, 3.53, 3.13, 3.09, 6.64, 6.26, 1.34, 1.2, 2.15, 2.79, 2.79, 3.2, 3.07, 3.32, 2.91, 3.07, 3.07, 3.07, 5.26, 6.26, 6.94, 6.82, 6.79, 6.82, 6.8, 6.57, 6.9, 6.9, 6.94, 5.73, 6.57, 7.6, 8.99, 9.24, 8.45, 5.37, 1.84, 1.84, -0.96, -4.38, -3.9, -1.27, -0.8, -0.45, -0.0, 0.8, 2.6, 3.6, 4.38, 4.92, 4.0, 2.53, 1.72, 2.26, 2.26, 1.55, 1.55, 7.55, 7.55, 7.27, 7.27, 7.59, 7.86, 8.19, 8.45, 8.5, 9.08, 9.08, 9.42, 9.66, 10.01, 10.23, 10.59, 10.8, 11.16, 11.62, 11.62, 11.24, 11.5, 11.5, 11.88, 12.03, 11.88, 11.36, 10.4, 11.02, 6.56, 6.03, 6.41, 6.8, 6.8, 7.01, 6.79, 6.79, 6.47, 6.04, 5.26, 4.8, 4.34, 3.87, 3.39, 3.7, 4.6, 5.34, 5.34, 4.8, 4.19, 3.6, 3.6, 3.87, 3.82, 3.39, 3.39, 3.09, 3.07, 2.68, 3.58, 5.81, 6.94, 7.2, 6.94, 7.63, 7.42, 7.1, 7.6, 7.89, 8.06, 6.6, 6.45, 8.18, 10.05, 9.97, 9.24, 6.0, 1.05, -0.0, -0.0, -2.84, -4.02, -3.9, -1.7, -0.63, 0.0, 1.2, 1.79, 4.47, 4.92, 4.85, 3.58, 0.88, 0.82, 2.35, 2.26, 2.26, 2.26, 7.55, 7.55, 7.27, 7.27, 7.59, 7.86, 8.19, 8.19, 8.5, 8.82, 9.08, 9.42, 9.42, 9.66, 10.01, 10.59, 10.8, 10.8, 11.07, 11.62, 11.62, 11.24, 11.5, 11.88, 11.5, 11.75, 10.83, 9.63, 8.43, 10.28, 5.78, 5.49, 6.03, 6.56, 6.8, 7.01, 6.6, 6.79, 6.3, 5.57, 5.09, 4.8, 4.34, 4.34, 4.11, 4.66, 5.79, 6.71, 6.16, 5.24, 4.34, 3.87, 3.98, 3.98, 3.54, 3.54, 3.54, 3.53, 3.13, 3.13, 4.02, 6.88, 7.63, 6.94, 7.54, 7.6, 7.6, 7.15, 8.49, 8.85, 8.17, 7.82, 8.3, 9.68, 11.05, 10.6, 8.56, 4.89, -0.0, -0.98, -0.87, -2.21, -3.13, -3.47, -0.95, 0.0, 0.54, 1.58, 4.92, 5.73, 4.98, 2.24, -0.0, -0.0, 0.82, 1.73, 2.26, 2.26, 7.55, 7.55, 7.27, 7.27, 7.59, 7.86, 8.19, 8.19, 8.5, 8.5, 9.08, 9.08, 9.42, 9.66, 10.01, 10.23, 10.59, 10.8, 10.8, 11.44, 11.62, 11.24, 11.5, 11.5, 11.5, 11.75, 10.83, 9.63, 8.18, 7.76, 6.41, 5.21, 4.94, 5.49, 6.03, 6.8, 6.8, 6.6, 6.1, 5.88, 5.57, 5.09, 5.09, 4.6, 4.6, 4.8, 5.26, 5.78, 5.81, 5.36, 4.92, 4.47, 4.02, 4.02, 3.98, 3.98, 4.02, 3.58, 3.58, 3.58, 6.58, 6.64, 6.64, 7.06, 6.64, 7.15, 7.15, 7.15, 8.05, 8.38, 8.06, 9.46, 9.03, 9.35, 11.14, 11.36, 10.25, 8.06, 2.21, -1.9, -1.2, -0.0, -1.58, -2.68, -2.53, 0.0, 0.44, 1.61, 4.98, 6.02, 4.98, 2.24, -1.8, -0.81, -0.0, 1.52, 1.63, 1.63, 7.55, 7.55, 7.27, 7.27, 7.59, 7.86, 7.86, 8.19, 8.5, 8.5, 9.08, 9.08, 9.42, 9.42, 9.66, 10.01, 10.59, 10.8, 10.8, 11.07, 11.07, 11.24, 11.5, 11.5, 11.5, 11.75, 10.83, 9.63, 8.0, 7.61, 6.8, 5.7, 5.08, 4.84, 5.75, 6.03, 6.8, 6.8, 6.6, 6.1, 5.81, 5.4, 5.51, 5.09, 5.09, 5.24, 5.7, 5.7, 5.34, 4.89, 4.89, 4.47, 4.02, 4.02, 4.02, 4.02, 4.02, 4.02, 3.58, 3.58, 3.98, 6.64, 6.64, 7.01, 7.5, 7.5, 7.1, 7.42, 8.0, 8.0, 7.89, 9.03, 9.76, 9.8, 11.15, 11.51, 11.36, 10.14, 5.36, -2.68, -2.68, 1.79, -1.79, -2.24, -2.6, -0.51, 0.0, 3.22, 5.51, 6.02, 4.82, -0.0, -2.2, -0.88, -0.0, -0.0, 1.52, 1.52, 7.23, 7.23, 7.27, 7.27, 7.59, 7.59, 7.86, 8.19, 8.5, 8.5, 9.08, 9.08, 9.42, 9.42, 9.42, 9.66, 10.59, 10.59, 10.8, 11.07, 11.07, 11.24, 11.24, 11.5, 11.5, 11.5, 10.83, 9.63, 7.9, 7.23, 6.56, 6.6, 6.1, 5.6, 5.08, 5.37, 6.28, 6.28, 6.4, 6.51, 6.1, 5.81, 5.57, 5.57, 5.4, 5.81, 5.99, 5.57, 5.57, 5.24, 4.77, 4.44, 3.98, 4.02, 4.02, 4.02, 4.02, 4.02, 4.02, 3.58, 3.53, 3.87, 7.01, 6.64, 7.1, 8.38, 7.37, 7.85, 8.45, 8.0, 8.94, 8.0, 10.2, 10.6, 11.59, 11.59, 11.14, 10.28, 6.17, -1.58, -2.68, -2.24, -1.79, -1.58, -1.79, 0.0, 1.27, 4.47, 5.81, 5.81, 4.02, -0.0, -2.2, -1.83, -0.0, -0.0, 1.7, 1.7, 6.95, 6.95, 7.27, 7.27, 7.27, 7.59, 7.86, 8.19, 8.17, 8.5, 8.82, 9.08, 9.08, 9.42, 9.42, 9.66, 10.23, 10.59, 10.8, 10.8, 11.07, 11.07, 11.24, 11.5, 11.5, 11.5, 10.83, 9.63, 7.9, 7.07, 6.95, 6.95, 6.8, 6.6, 5.6, 5.6, 5.75, 5.89, 6.28, 6.51, 6.1, 6.1, 5.81, 7.63, 5.09, 5.2, 5.6, 5.6, 5.31, 4.9, 4.6, 4.34, 3.87, 3.98, 4.02, 4.02, 4.02, 3.58, 4.02, 3.53, 3.53, 3.53, 6.71, 6.26, 7.1, 8.38, 7.54, 8.05, 8.05, 8.05, 8.05, 8.0, 9.76, 11.35, 11.51, 10.73, 10.28, 9.39, 5.36, -2.24, -2.68, -2.24, -1.58, -0.0, -0.0, 2.21, 2.97, 4.34, 5.73, 5.73, 3.48, -0.0, -1.99, -2.2, -0.0, -0.0, 0.98, 0.88, 6.95, 6.95, 7.27, 7.27, 7.27, 7.59, 7.86, 8.19, 7.9, 8.5, 8.82, 9.08, 9.08, 9.42, 9.42, 9.66, 10.01, 10.59, 10.59, 10.8, 11.07, 11.07, 11.07, 11.5, 11.5, 11.5, 10.83, 9.63, 8.27, 7.23, 6.7, 6.95, 7.08, 6.9, 6.6, 6.1, 6.1, 6.1, 6.1, 6.1, 6.1, 6.0, 5.6, 7.63, 4.8, 5.4, 5.37, 4.94, 4.84, 4.17, 3.88, 3.7, 3.87, 3.98, 3.58, 3.58, 3.58, 3.58, 4.02, 3.58, 3.53, 3.53, 6.58, 6.26, 6.71, 8.05, 8.05, 7.6, 8.05, 8.05, 7.55, 8.38, 9.29, 10.14, 11.36, 10.6, 9.83, 7.85, 2.24, -3.39, -2.21, -1.4, -0.99, -0.0, 0.99, 2.53, 3.6, 4.82, 5.29, 4.6, 2.99, -0.0, -1.05, -2.2, -0.0, 0.98, 0.98, 0.98, 6.95, 6.95, 7.27, 7.27, 7.27, 7.59, 7.86, 8.19, 7.9, 8.5, 8.5, 8.82, 9.08, 9.42, 9.42, 9.42, 10.01, 10.01, 10.59, 10.59, 11.07, 11.07, 11.07, 11.07, 11.5, 11.12, 10.83, 9.38, 8.18, 7.35, 6.7, 6.95, 6.95, 7.08, 7.31, 6.8, 6.6, 6.6, 6.1, 6.1, 6.1, 5.6, 5.08, 5.31, 7.85, 5.26, 4.55, 3.2, 2.86, 2.84, 2.79, 3.2, 3.39, 3.53, 3.58, 3.58, 3.58, 3.58, 4.02, 3.58, 3.53, 3.53, 3.98, 7.15, 7.15, 7.6, 7.15, 7.6, 7.6, 8.0, 8.0, 7.55, 9.39, 9.76, 11.35, 9.75, 8.45, 4.4, -3.2, -4.15, -3.35, -1.98, -0.99, -0.0, 1.2, 2.97, 4.02, 4.92, 4.98, 3.79, 1.84, 1.03, -0.0, -1.08, -0.0, 1.08, 1.98, 0.98, 6.95, 6.95, 7.55, 7.27, 7.27, 7.59, 7.86, 8.19, 7.9, 8.5, 8.5, 8.82, 9.08, 9.08, 9.42, 9.42, 9.66, 10.01, 10.59, 10.59, 11.07, 11.07, 11.07, 11.07, 11.34, 10.96, 10.83, 9.38, 8.18, 7.35, 7.23, 6.7, 6.95, 7.08, 7.08, 7.31, 7.31, 7.09, 7.01, 6.6, 6.6, 6.1, 5.08, 5.08, 5.6, 8.56, 3.7, 1.2, 0.53, 1.2, 2.15, 2.49, 3.07, 3.53, 3.58, 3.58, 3.58, 3.58, 3.58, 3.58, 3.58, 3.09, 6.26, 6.71, 7.15, 7.6, 7.15, 8.49, 7.6, 8.0, 8.0, 8.05, 8.94, 8.94, 9.74, 9.45, 6.8, 4.34, -0.0, -1.27, -2.98, -2.98, -2.21, -0.0, 1.58, 2.97, 4.34, 4.4, 4.29, 3.22, 1.99, 1.84, 0.88, -0.0, -0.0, 1.27, 2.84, 2.84, 6.95, 6.95, 6.95, 7.27, 7.27, 7.59, 7.59, 8.19, 7.9, 8.22, 8.5, 8.82, 9.08, 9.08, 9.42, 9.42, 9.66, 10.01, 10.01, 10.59, 10.59, 11.07, 11.07, 11.07, 11.34, 10.96, 10.41, 9.76, 8.55, 7.9, 7.35, 7.23, 7.23, 7.08, 7.08, 7.48, 7.71, 7.31, 7.51, 7.09, 7.01, 6.6, 5.6, 5.37, 6.03, 6.6, 5.26, 2.91, 1.86, 2.15, 2.15, 2.49, 3.07, 3.13, 3.58, 3.58, 3.58, 3.58, 4.02, 4.02, 3.58, 3.13, 3.53, 7.15, 7.15, 7.01, 7.5, 7.6, 7.1, 8.0, 8.05, 8.05, 8.85, 8.0, 9.39, 9.29, 7.76, 7.2, 7.2, 6.11, 2.53, -0.0, -2.8, -1.58, -0.0, 2.53, 3.35, 3.48, 3.79, 2.95, 0.96, 1.05, 1.05, -0.0, 1.4, 2.53, 2.53, 2.53, 6.95, 6.95, 6.95, 7.27, 7.27, 7.59, 7.59, 7.86, 7.9, 7.9, 8.5, 8.82, 8.82, 9.08, 9.42, 9.42, 9.42, 10.01, 10.01, 10.23, 10.23, 11.07, 11.07, 11.07, 11.07, 10.96, 10.41, 9.76, 8.55, 7.64, 7.35, 7.35, 7.23, 7.23, 7.48, 7.48, 7.48, 7.81, 7.81, 7.81, 7.51, 7.09, 6.51, 6.1, 6.28, 6.9, 7.26, 6.61, 5.26, 4.77, 4.3, 3.87, 3.53, 3.09, 3.58, 3.58, 4.02, 4.02, 4.02, 4.02, 3.58, 3.58, 3.58, 6.58, 6.58, 7.01, 7.45, 7.5, 6.94, 7.55, 8.05, 8.0, 8.33, 8.33, 8.33, 8.49, 9.06, 9.36, 9.03, 9.03, 7.81, 4.19, -0.0, -2.4, -1.58, -0.0, 1.13, 3.16, 3.48, 2.2, 1.08, 1.08, 2.0, -0.0, 1.4, 2.21, 2.21, 2.21, 6.95, 6.95, 6.95, 7.27, 7.27, 7.27, 7.59, 7.86, 7.9, 7.9, 8.5, 8.5, 8.82, 9.08, 9.42, 9.42, 9.42, 9.66, 10.01, 9.94, 10.15, 10.51, 11.07, 11.07, 11.07, 10.96, 10.41, 9.76, 8.65, 8.0, 7.9, 7.72, 7.35, 7.23, 7.23, 7.48, 7.48, 7.6, 7.81, 7.81, 7.81, 7.31, 6.8, 6.4, 6.4, 6.8, 7.51, 7.69, 7.4, 6.94, 6.04, 5.24, 4.44, 3.98, 3.98, 4.02, 4.02, 4.02, 4.02, 4.02, 3.58, 3.58, 3.13, 3.53, 6.64, 6.64, 7.01, 6.64, 7.1, 7.15, 8.49, 7.85, 8.06, 8.56, 8.77, 8.94, 9.24, 9.97, 10.18, 9.77, 9.36, 7.89, 3.39, -1.58, -1.9, -1.2, -0.0, 2.53, 2.23, 1.41, 1.7, 2.23, 1.41, 1.27, 1.8, 1.6, 1.6, 1.6, 6.95, 6.95, 6.95, 7.27, 7.27, 7.27, 7.59, 7.86, 7.9, 7.9, 8.5, 8.5, 8.82, 9.08, 9.13, 9.13, 9.13, 9.66, 9.66, 9.66, 9.94, 10.15, 10.15, 10.51, 10.79, 10.41, 10.41, 9.86, 9.21, 8.29, 8.0, 7.64, 7.72, 7.35, 7.23, 7.23, 7.6, 8.0, 8.0, 8.0, 8.22, 7.81, 7.31, 7.31, 6.8, 6.8, 7.09, 7.51, 7.26, 7.4, 6.94, 6.16, 5.7, 4.8, 4.44, 4.43, 3.98, 3.98, 4.02, 4.02, 4.02, 3.58, 3.13, 3.07, 3.7, 7.01, 7.15, 6.71, 7.15, 7.6, 7.85, 8.06, 8.29, 8.33, 8.9, 8.94, 9.79, 10.14, 9.97, 10.18, 10.18, 9.24, 6.17, -0.0, -2.21, -1.2, -0.0, 1.2, 1.4, -0.0, 2.4, 2.2, 1.05, 2.2, 2.2, 1.41, 1.41, 1.41, 6.95, 6.95, 6.95, 6.67, 7.27, 7.27, 7.59, 7.59, 7.9, 7.9, 8.22, 8.5, 8.82, 8.82, 9.13, 9.13, 9.13, 9.13, 9.42, 9.59, 9.59, 9.94, 10.41, 10.41, 10.41, 10.41, 10.04, 9.5, 8.94, 8.65, 8.08, 8.0, 7.64, 7.72, 7.35, 7.61, 7.76, 8.0, 8.0, 8.0, 8.0, 8.0, 7.48, 7.48, 7.31, 7.31, 7.31, 7.31, 7.51, 7.26, 6.79, 6.51, 6.04, 5.7, 4.8, 4.34, 3.98, 3.98, 3.98, 4.02, 4.02, 3.58, 3.13, 2.63, 3.39, 6.71, 7.15, 7.5, 7.94, 7.85, 8.06, 8.29, 8.33, 8.9, 8.94, 9.39, 9.79, 10.25, 10.14, 9.97, 10.41, 9.97, 7.1, 1.79, -2.97, -1.2, -0.0, -0.0, -0.0, -0.0, 1.41, 0.96, 1.05, 1.99, 2.2, 0.96, 0.96, 0.96, 6.95, 6.95, 6.95, 6.67, 7.27, 7.27, 7.59, 7.59, 7.9, 7.9, 8.22, 8.5, 8.82, 8.82, 9.13, 9.13, 9.13, 9.42, 9.08, 9.37, 9.59, 9.59, 10.23, 10.41, 10.41, 10.41, 10.04, 9.5, 8.94, 8.38, 8.08, 7.73, 8.0, 7.64, 7.72, 7.35, 7.76, 7.76, 8.15, 8.51, 8.51, 8.0, 8.0, 7.48, 7.08, 7.31, 7.31, 7.31, 7.31, 7.51, 7.09, 6.79, 6.47, 6.04, 5.09, 4.77, 4.3, 3.98, 3.98, 3.98, 4.02, 3.58, 3.13, 2.6, 2.49, 6.26, 7.15, 7.5, 7.94, 8.0, 8.9, 8.45, 8.9, 9.35, 9.39, 9.39, 9.39, 9.79, 9.7, 10.14, 9.97, 9.97, 7.54, 0.0, -4.02, -2.6, -0.0, -0.0, -0.0, -0.0, -0.0, -0.0, 1.19, 2.2, 2.2, -0.0, -0.0, -0.0, 6.64, 6.64, 6.95, 6.67, 7.27, 7.27, 7.59, 7.59, 7.59, 7.9, 8.22, 8.5, 8.82, 8.53, 8.85, 9.13, 9.13, 9.08, 9.08, 9.37, 9.37, 9.59, 9.94, 10.23, 10.41, 10.41, 10.04, 9.5, 8.94, 8.73, 8.15, 8.08, 8.0, 7.44, 7.44, 7.72, 7.9, 7.9, 8.15, 8.68, 8.68, 8.28, 7.76, 8.0, 7.48, 7.08, 7.31, 7.31, 7.31, 7.31, 7.01, 6.6, 6.3, 5.81, 5.09, 4.6, 4.34, 4.3, 3.87, 3.98, 3.98, 3.58, 2.68, 2.24, 2.24, 4.92, 6.26, 6.71, 7.15, 8.0, 8.77, 9.24, 9.35, 9.35, 9.35, 9.39, 9.39, 9.35, 9.24, 9.68, 9.49, 9.24, 8.29, 2.8, -4.02, -3.9, -0.0, 1.2, 1.4, -0.0, -0.99, -0.0, -0.0, 1.27, -0.0, -0.0, -0.0, -0.0, 6.64, 6.64, 6.95, 6.67, 6.97, 7.27, 7.27, 7.59, 7.59, 7.9, 8.22, 8.5, 8.82, 8.53, 8.85, 9.13, 9.08, 9.08, 9.37, 9.37, 9.37, 9.59, 9.94, 9.94, 10.23, 10.41, 9.86, 9.86, 9.3, 8.73, 8.15, 8.08, 7.51, 7.44, 7.44, 7.44, 7.9, 7.9, 7.9, 8.43, 8.43, 8.68, 8.28, 7.76, 7.48, 7.48, 7.48, 7.48, 7.48, 7.31, 6.8, 6.6, 6.1, 5.31, 5.09, 4.6, 4.6, 4.34, 4.3, 3.87, 3.98, 3.53, 2.68, 2.24, 2.24, 4.47, 5.36, 6.26, 6.71, 7.85, 8.06, 8.3, 8.72, 9.24, 9.35, 8.94, 8.94, 8.94, 8.77, 9.24, 9.06, 9.06, 8.99, 5.81, -3.58, -2.4, -0.0, -0.0, 0.98, 0.98, -0.0, -0.0, -0.0, -0.0, -0.0, -0.0, -0.0, -0.0, 6.64, 6.64, 6.95, 6.95, 6.97, 7.27, 7.27, 7.59, 7.3, 7.9, 8.22, 8.5, 8.82, 8.53, 8.53, 8.82, 8.82, 8.82, 9.08, 9.37, 9.37, 9.37, 9.94, 9.94, 9.94, 10.23, 9.86, 9.5, 8.94, 8.38, 8.15, 8.08, 7.51, 7.44, 7.44, 7.44, 7.44, 7.9, 7.9, 8.43, 8.43, 8.43, 8.43, 8.15, 7.76, 7.23, 7.48, 7.48, 7.48, 7.08, 6.8, 6.4, 6.1, 5.31, 4.9, 4.6, 4.6, 4.19, 4.11, 3.87, 3.87, 3.53, 3.07, 2.17, 1.79, 2.68, 4.92, 5.36, 6.26, 6.94, 7.12, 7.76, 8.21, 8.05, 9.06, 9.24, 8.94, 8.94, 8.9, 9.24, 9.24, 9.24, 9.24, 7.1, -4.0, -2.53, -0.99, -0.0, -0.0, 0.88, 0.98, -0.0, -0.0, -0.0, -1.05, -0.96, -0.96, -0.96, 6.64, 6.64, 6.95, 6.95, 6.67, 7.27, 7.27, 7.59, 7.3, 7.9, 8.22, 8.5, 8.53, 8.53, 8.53, 8.5, 8.5, 8.82, 9.08, 9.08, 9.08, 9.08, 9.94, 9.94, 9.94, 9.86, 9.86, 9.3, 8.94, 8.38, 7.81, 7.51, 7.51, 7.17, 7.44, 7.44, 7.44, 7.44, 7.64, 8.0, 8.18, 8.55, 8.43, 8.27, 7.9, 7.61, 7.23, 7.23, 7.48, 7.08, 6.95, 6.8, 6.1, 5.31, 4.9, 4.8, 4.4, 4.6, 4.19, 4.11, 3.87, 3.39, 2.91, 2.17, 1.7, 2.24, 4.92, 5.36, 5.81, 6.71, 7.54, 7.63, 7.76, 7.2, 8.4, 8.72, 8.77, 8.94, 8.94, 8.94, 9.35, 9.35, 9.35, -0.0, -4.22, -2.84, -1.98, -1.13, -0.0, -0.0, -0.0, -0.0, -0.0, -0.0, -1.05, -1.14, -1.14, -1.14, 6.34, 6.34, 6.95, 6.95, 6.67, 6.97, 7.27, 7.59, 7.3, 7.9, 8.22, 8.22, 8.53, 8.53, 8.5, 8.5, 8.5, 8.82, 9.08, 9.08, 9.08, 9.08, 9.94, 9.94, 9.59, 9.59, 9.86, 9.3, 8.73, 8.15, 7.81, 7.51, 7.17, 6.92, 6.92, 7.21, 7.44, 7.44, 7.64, 8.0, 8.0, 8.55, 8.18, 8.0, 7.9, 7.72, 7.61, 7.23, 7.23, 7.48, 6.95, 6.56, 5.6, 5.08, 5.31, 4.9, 4.8, 4.4, 4.4, 4.11, 3.7, 3.82, 3.39, 2.4, 1.7, 1.7, 1.79, 2.24, 5.81, 6.71, 7.55, 8.0, 8.0, 7.6, 7.15, 7.76, 8.33, 8.9, 8.94, 8.94, 8.94, 8.94, 7.15, -2.68, -5.29, -3.58, -2.84, -1.98, -1.13, -0.0, -0.0, -0.0, -0.0, -1.08, -2.2, -1.99, -1.99, -1.99, 6.34, 6.34, 6.95, 6.95, 6.67, 6.97, 7.27, 7.59, 7.3, 7.9, 8.22, 8.22, 8.53, 8.5, 8.5, 8.5, 8.82, 8.82, 8.82, 9.08, 9.08, 9.08, 9.08, 9.94, 9.59, 9.59, 9.86, 9.3, 8.73, 8.15, 7.55, 7.51, 6.92, 6.92, 6.59, 6.87, 6.87, 7.44, 7.44, 8.0, 8.0, 8.0, 8.0, 7.64, 7.9, 7.72, 7.35, 7.23, 7.23, 7.07, 6.7, 6.56, 5.75, 5.47, 5.08, 5.08, 4.8, 4.8, 4.4, 3.88, 3.7, 3.6, 3.2, 2.4, 1.86, 1.6, 1.79, 2.68, 4.92, 6.2, 7.55, 8.05, 8.49, 8.45, 8.33, 8.29, 8.05, 8.49, 8.94, 8.94, 8.94, 8.94, 7.55, 2.24, -6.26, -5.4, -3.48, -3.16, -2.23, -0.87, -0.98, -0.98, -1.08, -1.08, -2.2, -1.83, -1.83, -1.83, 6.34, 6.34, 6.64, 6.95, 6.67, 6.97, 7.27, 7.59, 7.6, 7.9, 7.9, 8.22, 8.22, 8.22, 8.5, 8.5, 8.82, 8.82, 8.82, 8.82, 9.08, 9.08, 9.08, 9.42, 9.59, 9.59, 9.37, 9.3, 8.73, 8.15, 7.55, 7.51, 6.92, 6.59, 6.87, 6.87, 6.87, 7.21, 7.44, 7.51, 7.73, 8.0, 7.44, 7.44, 7.72, 7.72, 7.35, 7.35, 6.98, 7.07, 6.7, 6.56, 5.75, 5.21, 5.08, 5.08, 4.55, 4.55, 4.17, 4.27, 3.88, 3.6, 3.2, 2.68, 1.86, 1.6, 1.6, 1.79, 2.68, 5.73, 7.1, 8.05, 8.49, 8.49, 8.9, 8.9, 8.49, 8.49, 8.94, 8.49, 8.49, 8.33, 8.56, 5.7, -3.82, -6.45, -4.22, -3.16, -2.84, -1.8, -1.8, -0.98, -1.8, -2.2, -2.4, -2.4, -2.4, -2.4, 6.34, 6.34, 6.64, 6.95, 6.67, 6.97, 7.27, 7.3, 7.6, 7.6, 7.9, 7.9, 7.9, 8.22, 8.5, 8.5, 8.5, 8.5, 8.5, 8.82, 8.82, 9.08, 9.08, 9.42, 9.37, 9.37, 9.37, 9.02, 8.73, 8.15, 7.23, 7.51, 6.92, 6.59, 6.59, 6.59, 6.87, 6.59, 6.92, 7.51, 7.8, 7.44, 7.44, 7.44, 7.44, 7.44, 7.35, 7.35, 7.35, 6.79, 7.07, 6.41, 5.86, 5.75, 5.21, 4.84, 4.93, 4.55, 4.55, 4.0, 3.88, 3.35, 3.6, 3.07, 2.15, 1.26, 1.6, 1.6, 2.0, 4.98, 6.64, 7.54, 7.6, 8.05, 8.05, 8.49, 8.45, 8.49, 8.45, 8.49, 8.45, 8.33, 8.56, 8.06, 2.53, -5.4, -4.8, -3.58, -3.58, -2.68, -1.8, -2.0, -1.66, -2.2, -3.22, -3.22, -3.22, -3.22, 6.34, 6.34, 6.34, 6.67, 6.67, 6.97, 7.27, 7.3, 7.3, 7.3, 7.6, 7.9, 7.9, 8.22, 8.5, 8.5, 8.5, 8.5, 8.5, 8.82, 8.82, 8.82, 9.08, 9.42, 9.08, 9.37, 9.37, 9.02, 8.73, 7.81, 7.23, 6.95, 6.92, 6.59, 6.32, 6.32, 6.32, 6.59, 6.92, 7.17, 7.44, 7.44, 7.44, 7.44, 7.44, 7.44, 7.44, 7.09, 7.35, 7.15, 6.79, 6.15, 5.86, 5.49, 5.21, 5.21, 4.65, 4.55, 4.55, 4.0, 4.0, 3.72, 3.35, 3.35, 2.21, 1.58, 1.26, 1.26, 1.9, 4.98, 6.2, 6.71, 7.15, 7.15, 7.6, 8.05, 8.05, 8.05, 8.44, 8.49, 8.45, 8.77, 8.77, 9.24, 5.4, -3.72, -5.51, -4.57, -4.15, -3.58, -3.16, -2.68, -2.53, -3.22, -3.22, -3.22, -3.22, -3.22, 6.34, 6.34, 6.34, 6.67, 6.67, 6.97, 6.98, 7.3, 7.3, 7.59, 7.6, 7.9, 8.22, 8.22, 8.22, 8.22, 8.22, 8.22, 8.5, 8.5, 8.82, 8.82, 9.08, 9.42, 9.08, 9.08, 9.37, 9.02, 8.45, 7.81, 7.23, 6.95, 6.92, 6.59, 6.32, 6.32, 6.32, 6.32, 6.59, 6.59, 7.21, 7.44, 7.44, 7.44, 7.44, 7.44, 7.44, 7.09, 7.09, 6.87, 6.79, 6.15, 5.59, 5.49, 5.29, 5.21, 4.65, 4.65, 4.29, 4.37, 4.0, 3.64, 3.72, 3.35, 2.79, 1.61, 1.24, 1.26, 1.9, 3.07, 4.02, 6.26, 6.71, 6.71, 7.15, 7.6, 8.05, 8.05, 8.45, 8.45, 8.9, 8.9, 8.9, 9.35, 6.2, -3.2, -5.81, -4.85, -4.38, -4.38, -4.15, -3.58, -3.93, -3.79, -3.79, -4.11, -4.11, -4.11, 6.34, 6.34, 6.34, 6.67, 6.67, 6.97, 6.69, 6.98, 7.59, 7.59, 7.6, 7.9, 8.22, 8.22, 8.22, 8.22, 8.22, 8.22, 8.22, 8.5, 8.53, 8.53, 8.53, 9.42, 9.08, 9.08, 9.37, 8.78, 8.45, 8.15, 7.55, 6.95, 6.92, 6.32, 6.32, 6.32, 6.32, 6.32, 6.32, 6.87, 6.87, 7.21, 7.44, 7.17, 7.17, 7.21, 6.87, 6.87, 6.87, 6.87, 6.52, 6.23, 5.93, 5.59, 5.29, 4.94, 4.71, 4.65, 4.29, 4.07, 3.73, 4.0, 3.43, 3.35, 3.14, 2.53, 1.49, 1.26, 1.26, 2.17, 3.13, 5.81, 5.73, 7.15, 6.71, 7.6, 8.05, 8.49, 8.49, 8.49, 8.9, 8.94, 8.94, 9.35, 7.1, 2.24, -5.73, -5.73, -4.92, -4.92, -5.29, -4.66, -4.57, -4.6, -4.19, -4.11, -4.11, -4.11, 6.34, 6.34, 6.35, 6.67, 6.67, 6.97, 6.97, 6.97, 7.27, 7.3, 7.6, 7.9, 7.9, 8.22, 8.22, 8.22, 8.22, 8.22, 8.22, 8.22, 8.53, 8.53, 8.53, 8.53, 9.08, 9.08, 9.08, 8.78, 8.45, 7.86, 7.55, 6.95, 6.92, 6.32, 6.32, 6.32, 6.32, 6.32, 6.32, 6.62, 6.59, 6.92, 6.92, 7.17, 6.92, 6.92, 6.87, 6.87, 6.87, 6.87, 6.28, 6.23, 5.65, 5.59, 5.01, 5.29, 4.71, 4.37, 4.41, 4.07, 4.07, 4.0, 3.43, 3.43, 3.09, 2.84, 1.88, 1.24, 0.6, 1.2, 2.12, 2.68, 3.13, 6.71, 6.26, 7.15, 7.6, 8.49, 8.49, 8.49, 8.49, 8.94, 8.94, 8.49, 8.44, 4.47, -3.72, -5.94, -6.17, -6.26, -6.26, -6.17, -5.51, -5.2, -4.81, -5.49, -5.49, -5.49, 6.34, 6.34, 6.35, 6.67, 6.67, 6.97, 6.97, 6.97, 7.27, 7.3, 7.6, 7.9, 7.9, 8.22, 8.22, 8.22, 8.22, 8.22, 8.22, 8.22, 8.53, 8.53, 8.53, 8.53, 9.08, 9.08, 9.08, 8.78, 8.45, 7.86, 7.55, 6.95, 6.92, 6.32, 6.32, 6.32, 6.32, 6.32, 6.32, 6.62, 6.59, 6.92, 6.92, 7.17, 6.92, 6.92, 6.87, 6.87, 6.87, 6.87, 6.28, 6.23, 5.65, 5.59, 5.01, 5.29, 4.71, 4.37, 4.41, 4.07, 4.07, 4.0, 3.43, 3.43, 3.09, 2.84, 1.88, 1.24, 0.6, 1.2, 2.12, 2.68, 3.13, 6.71, 6.26, 7.15, 8.05, 8.49, 8.49, 8.49, 8.49, 8.49, 8.49, 8.49, 8.45, 8.0, 4.92, -3.58, -6.26, -6.26, -6.64, -6.02, -6.0, -5.58, -5.49, -5.84, -5.84, -5.84]}, {"header": {"dx": 0.06612293990616946, "dy": 0.0552356325346848, "nx": 98, "ny": 59, "la1": 35.046912555036876, "la2": 31.78801023549047, "lo1": -121.43107172385933, "lo2": -114.95102361305473, "refTime": "2026040822", "parameterCategory": 1, "parameterNumber": 3}, "data": [-6.98, -6.98, -6.98, -7.32, -7.32, -6.97, -6.97, -6.71, -6.97, -6.96, -6.7, -5.92, -5.72, -3.39, -2.49, -1.76, -0.93, -1.84, -4.6, -7.89, -7.6, -7.6, -6.71, -6.71, -6.71, -6.71, -6.2, -6.2, -5.94, -5.51, -5.73, -5.26, -4.92, -4.92, -4.98, -5.21, -5.49, -5.37, -5.37, -5.24, -4.71, -5.46, -5.92, -6.63, -7.13, -7.36, -8.74, -8.86, -7.93, -6.43, -4.87, -3.39, -1.69, -0.82, 0.0, 0.85, 0.85, 1.69, 2.49, 2.49, 2.59, 3.49, 3.32, 3.45, 3.6, 3.6, 3.6, 2.83, 2.69, 2.69, 2.54, 1.73, 1.72, 0.96, 0.96, 0.89, 1.03, 0.0, 0.0, 0.0, 0.0, 0.0, -2.84, -2.84, -1.4, 0.0, 1.83, 2.8, 5.49, 7.12, 7.85, 7.85, 8.06, 7.42, 7.44, 7.15, 6.64, 6.64, -6.98, -6.98, -6.98, -6.98, -7.32, -7.33, -6.97, -6.97, -6.97, -6.97, -6.33, -7.12, -5.0, -4.5, -3.68, -2.42, -2.49, -2.52, -4.2, -6.21, -8.49, -8.05, -8.05, -8.05, -6.71, -6.71, -6.64, -6.64, -6.45, -6.45, -6.17, -5.73, -5.81, -5.73, -5.94, -5.95, -6.55, -6.45, -6.79, -6.73, -6.95, -7.56, -8.54, -8.95, -9.77, -10.43, -9.66, -8.84, -7.51, -5.86, -5.14, -3.25, -2.49, -1.5, -0.75, 0.0, 0.0, 0.85, 0.85, 1.62, 1.76, 2.47, 2.57, 2.69, 2.69, 2.69, 2.54, 2.54, 2.69, 2.57, 1.75, 0.89, 0.0, 0.0, 0.0, 0.0, 0.0, 0.0, 0.0, 0.0, 0.0, 0.0, -2.84, -2.84, -1.4, 0.0, 1.83, 2.8, 5.49, 7.12, 7.85, 7.85, 8.06, 7.42, 7.44, 7.15, 6.64, 6.64, -6.98, -6.98, -6.98, -7.32, -7.32, -7.33, -7.33, -6.97, -6.7, -6.97, -6.34, -5.45, -6.0, -5.0, -4.5, -3.39, -3.29, -3.42, -3.67, -6.32, -7.37, -8.05, -8.05, -8.49, -8.49, -7.15, -7.1, -6.64, -7.1, -7.1, -7.1, -7.1, -6.71, -7.6, -6.16, -7.28, -7.2, -7.15, -7.76, -8.03, -8.93, -9.85, -11.47, -12.42, -12.33, -11.29, -9.24, -7.64, -5.9, -5.06, -4.4, -3.65, -2.59, -1.76, -1.54, -0.82, 0.0, 0.0, 0.0, 0.89, 0.85, 1.68, 1.75, 1.75, 2.44, 2.69, 1.84, 1.84, 1.67, 1.75, 1.68, 0.0, -0.89, -1.84, -1.05, 0.0, 0.0, 0.0, 0.0, 0.0, 1.6, 0.0, 0.0, 0.0, 1.4, 2.41, 3.35, 4.74, 6.6, 7.81, 7.85, 7.85, 7.76, 7.42, 7.15, 6.32, 6.18, 5.89, -6.98, -6.98, -7.3, -7.32, -7.32, -7.33, -7.33, -6.97, -6.96, -6.7, -6.34, -6.06, -6.84, -5.41, -5.0, -5.0, -4.87, -5.4, -4.17, -5.06, -7.2, -8.38, -8.49, -7.6, -8.05, -8.82, -7.54, -7.1, -7.15, -8.05, -8.05, -8.49, -8.49, -8.49, -8.06, -8.4, -8.54, -9.09, -10.04, -10.66, -12.26, -12.78, -13.12, -12.09, -10.75, -8.95, -7.24, -5.29, -4.56, -3.63, -3.15, -2.57, -1.75, -1.68, -0.85, -0.85, 0.0, 0.0, 0.0, 0.0, 0.85, 0.85, 1.75, 1.75, 1.75, 1.67, 1.67, 1.58, 1.52, 1.47, 1.62, 0.0, -2.8, -4.22, -3.48, -2.16, 0.0, 0.0, 0.0, 2.24, 1.4, 1.08, 2.48, 4.8, 5.94, 6.21, 6.6, 6.6, 7.12, 7.37, 7.37, 7.53, 7.2, 7.2, 6.32, 5.36, 5.36, 6.01, -6.98, -7.3, -7.3, -7.32, -7.32, -7.61, -7.33, -7.33, -6.96, -6.7, -6.7, -6.67, -7.48, -5.75, -4.8, -5.2, -5.51, -5.72, -5.72, -5.63, -7.56, -8.82, -8.38, -8.94, -8.49, -8.94, -9.39, -9.39, -9.39, -8.49, -8.94, -9.39, -9.83, -9.39, -10.65, -10.84, -10.46, -10.94, -12.23, -13.83, -13.89, -11.82, -10.43, -8.95, -8.3, -6.45, -5.14, -4.25, -3.36, -2.47, -1.68, -0.85, 0.0, 0.0, 0.0, 0.0, 0.0, 0.0, 0.0, 0.89, 0.89, 0.89, 1.75, 1.75, 1.75, 1.75, 1.67, 1.84, 1.75, 2.57, 2.7, 1.84, -2.21, -5.36, -5.51, -3.48, -1.08, 0.0, -0.0, 0.0, 0.0, 2.48, 4.98, 6.88, 7.53, 7.63, 7.6, 7.2, 6.8, 7.12, 7.37, 7.12, 7.2, 6.45, 5.36, 4.96, 5.1, 6.45, -6.98, -7.3, -7.3, -7.6, -7.32, -7.61, -7.33, -7.33, -7.33, -6.96, -6.98, -6.34, -7.18, -5.52, -4.62, -5.0, -5.86, -6.08, -6.7, -6.7, -7.27, -8.56, -9.74, -9.83, -10.28, -9.83, -10.28, -10.28, -10.28, -10.73, -9.35, -9.35, -9.7, -9.97, -9.11, -9.54, -9.66, -9.43, -11.83, -13.75, -12.86, -11.72, -9.26, -8.01, -6.56, -5.86, -5.0, -3.39, -2.49, -1.69, -0.85, 0.0, 0.0, 0.82, 0.82, 0.82, 0.82, 0.85, 0.85, 0.89, 0.85, 0.89, 1.84, 1.67, 1.75, 1.75, 1.75, 1.75, 1.75, 2.69, 3.45, 3.55, 2.48, -1.9, -2.21, 0.0, 1.27, 1.6, 0.0, -0.0, 2.68, 4.34, 5.94, 6.88, 6.88, 6.57, 6.21, 6.6, 6.21, 6.57, 7.12, 7.12, 6.18, 5.69, 5.1, 4.5, 5.69, 7.2, -6.98, -7.3, -7.3, -7.6, -7.32, -7.61, -7.33, -7.61, -7.6, -7.6, -6.98, -5.71, -6.83, -4.92, -4.72, -4.3, -5.06, -5.4, -6.7, -6.87, -7.08, -8.43, -9.24, -9.79, -10.73, -10.73, -10.73, -10.73, -10.73, -9.83, -10.73, -9.35, -9.24, -8.43, -8.24, -8.82, -8.72, -8.93, -10.4, -12.04, -13.44, -12.04, -10.94, -9.42, -8.24, -6.0, -5.63, -4.3, -3.39, -2.42, -1.18, -0.82, 0.0, 0.0, 0.0, 0.0, 0.0, 0.0, 0.0, 0.89, 0.89, 1.65, 1.84, 1.84, 1.67, 1.67, 0.89, 0.84, 0.84, 1.84, 2.67, 3.77, 4.29, 4.11, 4.29, 4.98, 3.79, 2.2, 3.82, 4.92, 4.24, 4.92, 5.36, 5.73, 5.51, 4.8, 4.98, 4.89, 6.0, 6.16, 6.28, 5.82, 5.84, 4.68, 4.26, 5.24, 6.55, 7.76, -6.97, -6.98, -7.3, -7.3, -7.32, -7.61, -7.33, -7.61, -7.6, -7.6, -6.98, -5.69, -6.64, -5.52, -5.86, -4.5, -5.4, -5.6, -6.21, -6.56, -6.7, -7.64, -8.95, -9.92, -9.68, -9.76, -9.83, -9.83, -10.2, -10.66, -11.18, -12.07, -11.45, -10.8, -8.3, -8.0, -7.35, -3.79, -3.79, -9.29, -11.78, -11.45, -10.62, -9.48, -7.9, -7.27, -6.04, -5.14, -5.14, -4.54, -2.59, -2.49, -1.76, -0.85, -0.85, 0.0, 0.0, 0.0, 0.0, 0.0, 0.89, 0.84, 0.89, 0.89, 0.89, 0.94, 0.0, 0.0, 0.0, 0.89, 1.73, 2.82, 2.82, 3.91, 4.65, 3.79, 2.99, 3.22, 4.8, 6.26, 5.29, 4.0, 3.47, 3.58, 3.39, 2.98, 3.35, 4.4, 4.98, 5.4, 4.8, 4.84, 4.74, 4.87, 4.87, 6.18, 7.2, 7.76, -6.97, -6.69, -7.3, -7.3, -7.32, -7.61, -7.61, -7.95, -7.6, -7.6, -6.98, -6.23, -9.09, -8.35, -7.78, -7.1, -7.36, -6.56, -6.43, -7.19, -7.51, -8.82, -8.55, -9.2, -8.99, -9.29, -8.49, -8.94, -9.74, -10.73, -11.62, -12.45, -12.71, -11.03, -8.8, -7.82, -6.4, 4.92, 5.81, 0.0, -7.15, -9.97, -10.05, -9.04, -6.98, -6.11, -6.64, -5.46, -5.21, -5.06, -4.8, -3.36, -3.25, -2.6, -1.69, -1.69, -1.69, -0.85, -0.81, 0.0, 0.0, 0.0, 0.0, 0.0, 0.0, 0.0, 0.0, -0.89, -0.89, 0.0, 0.0, 0.74, 0.89, 0.88, 0.98, 1.19, 1.05, 2.73, 4.8, 5.75, 6.26, 2.84, 0.99, 1.58, 1.79, 1.79, 2.24, 3.58, 2.97, 2.98, 2.84, 3.48, 4.11, 5.49, 5.84, 6.6, 7.2, 7.2, -6.97, -6.69, -7.3, -7.3, -7.32, -7.61, -7.95, -7.95, -7.96, -7.96, -7.3, -7.51, -7.09, -7.44, -9.26, -8.97, -9.26, -9.59, -9.48, -8.54, -8.85, -9.3, -10.0, -9.6, -10.05, -9.03, -8.38, -8.94, -10.28, -11.18, -11.55, -11.55, -8.85, -5.58, -3.0, -3.2, 0.0, 6.26, 7.15, 6.51, 2.8, -4.4, -6.8, -6.82, -6.11, -5.24, -4.68, -3.6, -3.45, -3.63, -3.32, -4.2, -3.36, -3.25, -3.25, -2.49, -2.49, -2.59, -1.75, -1.75, -0.94, 0.0, 0.0, 1.84, 1.84, 0.0, 0.0, -2.31, -2.4, -2.51, -1.73, -0.79, 0.0, 0.0, 0.0, 0.0, 0.0, 1.27, 4.02, 5.36, 5.29, 4.47, -0.0, -0.0, -0.0, -0.0, -0.0, 1.79, 1.79, 1.58, 2.8, 3.9, 4.98, 6.0, 6.6, 7.2, 7.2, 6.82, -6.97, -7.3, -7.3, -7.3, -7.6, -7.61, -7.95, -7.95, -7.96, -7.96, -7.61, -7.86, -7.86, -7.3, -9.02, -8.12, -8.97, -5.54, -5.37, -4.81, -8.42, -8.35, -9.2, -8.8, -6.63, -3.22, -3.48, -3.79, -6.0, -7.45, -7.94, -5.36, 1.9, 4.29, 3.63, 3.2, 5.72, 7.06, 5.58, 5.15, 4.74, 2.2, -2.95, -6.9, -6.63, -4.95, -3.6, -2.54, -1.75, -1.84, -2.57, -2.7, -2.47, -3.36, -3.51, -4.13, -4.44, -4.4, -4.34, -2.67, 0.0, 2.76, 5.15, 6.11, 5.1, 3.32, 0.85, -2.57, -5.1, -4.95, -3.77, -2.51, -1.63, -0.82, -0.88, -1.55, -2.0, 1.9, 4.34, 4.92, 4.38, 4.38, 4.02, -0.0, -1.8, -1.74, -1.2, -0.0, -0.0, 1.79, 2.68, 4.47, 4.92, 5.94, 6.21, 6.6, 6.6, 5.49, -7.27, -7.3, -7.3, -7.3, -7.6, -7.61, -7.95, -7.95, -7.96, -7.96, -7.61, -7.9, -7.9, -7.95, -6.31, -5.0, -3.94, -4.0, -3.8, -3.78, -3.76, -2.83, -2.73, -6.3, 0.0, 4.47, 4.02, 0.89, 2.21, 0.0, 0.0, 4.09, 5.94, 5.2, 4.6, 4.54, 4.81, 5.15, 4.58, 4.58, 3.55, 3.0, 0.0, -2.8, -5.37, -4.58, -4.14, -2.99, -1.4, -1.4, -1.75, -1.67, -1.75, -1.75, -1.67, -1.67, -2.69, -4.68, -5.49, -1.4, 5.26, 7.37, 7.76, 7.81, 7.76, 6.53, 5.06, 0.89, -6.11, -7.2, -5.82, -4.65, -3.0, -2.64, -3.47, -2.99, 0.0, 3.58, 2.84, 2.97, 4.02, 4.47, 4.47, 2.53, -0.0, -1.8, -2.84, -2.21, -0.0, 0.99, 1.98, 2.98, 4.02, 4.82, 4.98, 4.89, 4.89, 4.89, -7.27, -7.3, -7.3, -7.3, -7.6, -7.61, -7.65, -7.95, -7.96, -7.96, -7.96, -7.93, -7.93, -8.24, -7.32, -6.22, -4.58, -3.41, -2.9, -2.8, -2.26, -1.13, -1.12, -0.56, 0.0, 0.89, 1.26, 0.95, 1.26, 1.27, 3.9, 5.2, 4.98, 4.98, 4.98, 5.21, 4.81, 4.29, 3.72, 2.64, 2.64, 1.84, 0.0, -1.05, -3.47, -4.74, -4.56, -2.99, -2.99, -1.32, -1.55, -0.8, -0.76, 0.83, 3.4, 4.56, 3.4, -2.6, -4.0, 4.29, 8.49, 8.77, 8.17, 7.82, 7.81, 8.06, 8.32, 7.15, -1.6, -7.54, -7.37, -5.49, -5.37, -5.49, -4.11, 0.0, 4.77, 5.36, 3.39, 1.2, 1.58, 3.2, 2.4, 3.58, 3.58, -0.0, -1.27, -1.13, -0.0, -0.0, -0.0, 0.99, 2.97, 4.02, 4.0, 3.93, 3.48, 4.29, -7.27, -7.3, -7.3, -7.3, -7.6, -7.32, -7.93, -7.95, -7.96, -8.24, -7.96, -7.95, -7.95, -8.24, -8.23, -7.53, -6.36, -5.18, -3.98, -2.92, -2.35, -1.7, -1.13, -1.11, -0.55, -0.59, 0.0, 0.45, 0.63, 0.95, 1.27, 4.34, 5.6, 4.54, 4.89, 5.21, 4.43, 3.72, 2.64, 1.84, 0.89, 0.0, 0.0, 0.0, -3.22, -3.47, -1.83, 0.0, 0.0, 0.0, 0.0, 0.0, 1.63, 6.4, 7.06, 5.46, 4.37, 0.0, 0.0, 6.57, 8.94, 9.29, 8.63, 8.4, 8.17, 8.4, 8.55, 8.4, 6.4, -4.02, -6.71, -6.45, -6.45, -3.82, 3.13, 5.73, 6.88, 6.57, 4.98, 2.68, -0.0, -0.0, 1.58, 3.39, 4.02, 4.77, 3.72, 2.23, 1.8, -0.0, -0.0, -0.0, 1.9, 2.68, 2.4, 2.53, 3.35, 4.77, -7.27, -7.3, -7.3, -7.3, -7.6, -7.32, -7.61, -7.95, -7.96, -8.24, -8.24, -7.96, -7.95, -8.24, -7.96, -7.95, -7.5, -6.33, -5.3, -4.77, -4.1, -3.42, -2.87, -2.31, -2.24, -2.26, -1.16, 0.0, 0.0, 0.6, 1.2, 1.73, 5.6, 5.36, 5.72, 6.52, 5.37, 3.33, 2.54, 0.0, 0.0, 0.0, 0.0, 0.0, 0.0, 0.0, 5.51, 6.0, 5.06, 4.56, 2.82, 2.66, 5.06, 6.64, 6.4, 4.74, 2.82, 1.63, 3.33, 8.06, 8.45, 8.06, 7.6, 8.0, 8.4, 8.4, 8.63, 7.81, 6.64, 2.12, -5.73, -7.08, -2.53, 5.26, 7.6, 7.85, 7.12, 6.55, 6.18, 3.93, 2.68, 0.0, 3.13, 5.36, 6.71, 6.26, 5.73, 4.98, 4.15, 3.35, -0.0, -0.0, -0.0, 0.0, 2.68, 4.34, 4.82, 4.82, -7.27, -7.3, -7.3, -7.3, -7.6, -7.32, -7.61, -7.95, -7.96, -7.96, -8.24, -8.24, -7.96, -7.96, -8.24, -7.96, -7.53, -7.03, -6.52, -5.81, -4.6, -4.07, -3.52, -2.85, -2.26, -1.71, -1.16, 0.0, 0.0, 0.0, 0.0, 1.61, 2.68, 5.36, 6.13, 5.82, 4.58, 2.82, 1.25, 0.0, 0.0, 0.0, 0.0, 1.25, 2.66, 6.64, 8.05, 7.94, 6.52, 5.37, 3.91, 4.56, 5.37, 5.72, 4.74, 3.0, 1.49, 1.58, 4.37, 7.44, 6.8, 6.9, 6.08, 6.08, 6.08, 6.44, 5.49, 5.59, 5.21, 3.15, -3.22, -2.68, 6.26, 8.94, 8.77, 8.17, 7.2, 6.11, 5.69, 5.49, 3.79, 4.0, 5.73, 7.6, 8.0, 7.85, 6.71, 6.17, 5.73, 5.36, 3.35, -0.0, 2.24, 4.02, 4.92, 5.29, 5.29, 5.29, -7.27, -7.59, -7.3, -7.3, -7.6, -7.32, -7.61, -7.95, -7.96, -7.96, -8.24, -7.96, -7.96, -7.96, -7.59, -7.32, -7.55, -6.85, -6.56, -5.85, -5.3, -4.6, -3.52, -2.38, -1.13, -0.57, -0.56, -0.54, 0.0, -0.54, -0.56, 0.57, 2.21, 5.36, 5.75, 5.82, 4.74, 3.0, 1.32, 0.0, 0.0, 1.84, 3.91, 4.16, 6.01, 7.6, 8.06, 6.9, 5.69, 4.14, 3.8, 3.8, 5.31, 4.14, 3.91, 1.49, 1.32, 2.54, 4.37, 6.01, 5.31, 5.37, 4.29, 4.29, 4.29, 3.22, 4.29, 4.83, 5.31, 4.14, 1.73, 5.82, 9.49, 9.24, 8.8, 7.81, 7.06, 6.01, 5.69, 5.84, 5.49, 6.0, 6.94, 7.56, 8.0, 7.85, 7.85, 6.17, 5.73, 5.36, 3.13, 2.68, 4.47, 6.26, 6.64, 6.07, 5.59, 5.59, -6.97, -7.27, -7.3, -7.3, -7.6, -7.32, -7.61, -7.95, -7.96, -7.96, -8.24, -7.96, -7.96, -7.96, -7.33, -7.19, -6.9, -6.85, -6.36, -5.18, -4.66, -4.1, -3.44, -1.7, 0.0, 0.58, -0.58, -1.69, -2.33, -2.23, -1.71, 0.0, 1.0, 2.15, 2.91, 4.98, 4.0, 1.7, 1.52, 1.63, 4.29, 5.37, 5.37, 6.01, 6.32, 7.44, 6.98, 6.63, 5.31, 4.0, 3.52, 4.0, 4.0, 3.8, 2.54, 2.54, 1.32, 2.54, 4.14, 5.31, 4.14, 4.14, 2.82, 2.66, 1.4, 1.03, 0.89, 1.4, 2.82, 4.37, 5.46, 7.68, 8.38, 8.02, 7.27, 6.04, 6.18, 6.01, 6.11, 6.18, 6.6, 6.6, 7.37, 7.89, 8.29, 8.29, 8.56, 7.15, 6.64, 6.26, 5.73, 5.73, 6.71, 7.11, 7.1, 6.45, 5.59, 5.59, -6.97, -6.97, -7.3, -7.3, -7.6, -7.32, -7.61, -7.95, -8.24, -7.96, -8.24, -7.96, -7.96, -7.96, -7.6, -8.99, -6.94, -6.9, -6.22, -4.58, -3.47, -3.42, -4.01, -3.13, -1.67, -1.17, -1.58, -4.1, -4.71, -2.73, -1.11, 0.0, 0.57, 1.24, 1.7, 1.34, 0.63, 0.0, 0.96, 1.4, 2.64, 4.22, 4.56, 5.37, 5.69, 6.01, 5.59, 4.71, 3.8, 3.52, 2.46, 3.52, 4.0, 3.8, 3.8, 2.54, 2.54, 4.14, 4.37, 3.8, 2.69, 2.54, 2.54, 0.83, 0.95, 0.0, 0.0, 0.0, 0.89, 2.83, 4.23, 6.0, 6.08, 5.2, 4.13, 3.36, 3.63, 5.24, 6.55, 6.82, 6.6, 7.12, 7.85, 7.89, 8.33, 8.77, 8.56, 8.14, 7.6, 6.65, 6.71, 6.71, 7.15, 6.71, 6.64, 5.94, 5.94, 5.94, -6.97, -6.97, -7.3, -7.3, -7.6, -7.32, -7.61, -7.95, -8.24, -7.96, -8.24, -7.96, -7.96, -7.96, -7.96, -7.33, -6.94, -6.7, -7.49, -5.86, -5.67, -4.7, -5.21, -7.2, -7.45, -5.91, -5.55, -3.83, -2.37, -0.57, 0.0, 0.0, 0.0, 0.99, 1.26, 1.2, 0.0, 0.0, 0.0, 0.0, 1.08, 1.73, 1.58, 2.51, 2.58, 4.14, 3.8, 2.69, 2.69, 2.46, 2.46, 3.8, 3.8, 4.37, 3.77, 3.77, 3.8, 3.79, 3.6, 2.46, 1.2, 1.4, 0.0, 0.0, 0.0, 0.0, 0.0, 0.0, 0.0, 0.85, 1.76, 2.61, 2.45, 0.83, 0.0, 0.0, 1.84, 4.74, 6.6, 6.6, 6.6, 7.12, 7.85, 8.29, 8.06, 7.71, 7.71, 7.71, 7.89, 7.15, 6.64, 6.64, 6.2, 6.26, 5.75, 5.94, 5.94, 5.94, -6.97, -6.97, -7.3, -7.3, -7.6, -7.32, -7.61, -7.95, -7.95, -7.96, -8.24, -7.96, -8.23, -7.96, -8.23, -7.57, -7.57, -6.96, -6.7, -8.84, -8.29, -5.6, -6.22, -6.92, -7.59, -6.27, -5.0, -3.21, -0.42, 1.2, 0.89, 0.63, 0.6, 0.99, 1.24, 0.99, 0.57, 0.0, 0.0, 0.0, 0.5, 1.23, 1.13, 1.61, 1.88, 3.0, 2.82, 2.54, 1.2, 1.2, 2.54, 4.14, 5.03, 5.03, 4.14, 3.55, 4.42, 4.03, 2.46, 0.0, 0.0, 0.0, 0.0, 0.0, 0.0, 0.0, 0.0, 0.0, 0.0, 0.85, 1.76, 1.58, 0.0, -1.71, -3.39, -2.69, 2.84, 4.98, 6.0, 6.57, 6.6, 7.12, 7.81, 7.28, 8.06, 8.06, 8.06, 8.14, 7.98, 7.55, 6.64, 5.94, 5.4, 4.85, 4.92, 5.29, 5.59, 5.59, -6.97, -6.97, -7.3, -7.3, -7.6, -7.32, -7.61, -7.95, -7.95, -7.96, -7.96, -7.96, -8.23, -7.96, -7.96, -7.57, -7.55, -6.92, -7.33, -7.6, -6.94, -5.83, -5.17, -5.64, -6.7, -6.29, -5.62, -2.86, 0.0, 0.57, 0.95, 0.95, 0.99, 1.24, 1.2, 1.2, 1.2, 1.2, 1.0, 0.99, 1.13, 1.13, 1.16, 1.2, 1.58, 1.61, 1.49, 0.0, 0.0, 2.4, 4.56, 5.37, 5.37, 5.37, 4.56, 4.56, 4.42, 3.6, 1.26, 0.0, -0.89, -1.67, -1.75, -1.75, -1.84, -0.89, -0.95, 0.0, 1.73, 2.83, 3.87, 4.72, 2.69, -2.95, -4.34, 0.0, 2.68, 3.58, 4.85, 5.59, 6.57, 7.12, 7.85, 8.29, 8.33, 8.77, 8.56, 8.99, 8.4, 7.71, 7.15, 5.29, 4.57, 4.38, 4.47, 5.36, 6.17, 6.17, -6.97, -6.97, -6.97, -7.3, -7.3, -7.32, -7.61, -7.95, -7.95, -7.96, -7.96, -7.96, -7.96, -7.96, -7.96, -7.83, -7.55, -7.31, -7.32, -7.57, -6.9, -5.28, -4.62, -3.99, -4.54, -5.02, -5.23, -3.32, -1.04, 0.0, 0.0, 0.65, 1.0, 1.2, 1.2, 1.61, 1.61, 1.84, 1.84, 1.6, 1.6, 1.6, 1.61, 1.2, 1.24, 1.88, 1.4, 0.0, 1.4, 4.02, 6.52, 5.37, 5.37, 4.56, 4.29, 4.56, 4.58, 3.4, 2.83, 0.84, -0.89, -2.54, -3.6, -3.6, -3.4, -1.84, 0.0, 1.98, 3.55, 4.26, 4.2, 5.7, -0.0, -3.72, -4.8, -0.0, 1.9, 3.39, 4.38, 4.92, 5.75, 7.1, 8.0, 8.45, 8.77, 8.77, 8.77, 8.99, 8.72, 7.82, 7.47, 5.75, 4.38, 4.15, 4.85, 5.36, 5.81, 5.81, -6.97, -6.97, -7.27, -7.3, -7.3, -7.32, -7.61, -7.95, -7.95, -7.96, -7.96, -8.24, -7.96, -8.23, -7.96, -7.83, -7.55, -7.55, -7.31, -7.57, -6.88, -5.92, -4.7, -4.03, -3.56, -4.02, -4.08, -3.35, -1.65, -0.54, 0.0, 0.0, 0.61, 1.0, 1.16, 1.13, 1.6, 1.6, 1.8, 2.23, 2.23, 2.23, 1.6, 1.16, 1.24, 0.54, 0.0, 1.4, 4.02, 5.72, 6.52, 5.37, 4.56, 4.29, 4.29, 4.29, 3.47, 3.55, 3.8, 2.99, 0.0, -1.72, -3.72, -3.72, -2.6, 1.05, 4.74, 6.63, 5.37, 4.26, 2.83, 2.83, 3.2, -2.48, -4.11, -0.0, 3.79, 4.84, 5.94, 4.85, 5.36, 5.81, 6.71, 7.6, 8.44, 8.33, 8.77, 8.3, 8.21, 7.81, 7.2, 6.4, 5.29, 4.85, 5.75, 5.81, 5.36, 5.36, -6.97, -6.97, -7.27, -7.3, -7.3, -7.3, -7.61, -7.95, -7.95, -7.96, -7.96, -8.24, -7.96, -8.23, -7.96, -8.22, -7.55, -7.55, -7.31, -7.57, -7.13, -6.85, -5.88, -5.34, -4.52, -4.03, -3.99, -3.32, -2.16, -1.07, -0.54, 0.0, 0.0, 0.59, 1.13, 1.13, 1.11, 1.58, 1.8, 1.8, 2.23, 2.23, 2.23, 1.6, 0.53, 0.0, 0.0, 1.11, 2.86, 3.16, 3.43, 5.37, 4.29, 4.29, 4.29, 4.29, 2.66, 2.8, 2.82, 4.14, 2.82, 1.84, 0.0, 0.0, 2.48, 6.57, 7.76, 6.79, 5.53, 1.84, 0.0, 0.0, 1.39, 0.0, -2.84, -0.0, 2.53, 4.29, 6.0, 5.2, 5.51, 5.59, 6.21, 6.71, 7.6, 8.0, 8.29, 7.76, 7.82, 7.07, 7.2, 6.44, 6.28, 6.26, 5.75, 5.81, 5.36, 5.36, -6.97, -6.97, -7.27, -7.59, -7.3, -7.3, -7.6, -7.65, -7.95, -7.96, -7.96, -8.24, -7.96, -8.23, -7.96, -8.22, -7.55, -7.55, -7.55, -7.31, -6.9, -6.88, -7.06, -6.33, -5.85, -5.18, -4.58, -3.89, -2.75, -1.16, -0.54, 0.0, 0.0, 0.55, 0.57, 0.57, 1.11, 1.11, 1.58, 1.8, 1.6, 1.8, 1.58, 1.58, 1.13, 0.0, 0.0, 0.0, 1.13, 1.6, 2.23, 2.51, 4.02, 5.72, 5.06, 4.56, 2.66, 3.2, 3.2, 3.91, 4.37, 3.8, 2.64, 3.91, 6.16, 8.06, 7.82, 7.15, 4.26, 1.75, 0.0, 0.0, 0.0, 0.0, -2.53, -1.99, -0.0, 2.4, 3.63, 4.89, 5.21, 5.34, 5.59, 6.21, 6.71, 7.6, 7.85, 7.76, 7.2, 7.03, 6.82, 6.07, 6.28, 6.65, 6.26, 5.81, 5.36, 5.36, -6.97, -6.97, -7.27, -7.27, -7.3, -7.3, -7.6, -7.61, -7.95, -8.24, -7.96, -8.24, -7.96, -8.23, -7.96, -8.22, -7.55, -7.55, -7.55, -6.9, -6.9, -7.13, -6.85, -6.36, -6.33, -5.85, -5.21, -4.48, -3.32, -2.14, -1.05, -0.57, 0.0, 0.0, 0.0, 0.0, 0.0, 0.0, 0.55, 0.57, 1.13, 1.13, 1.58, 1.76, 1.08, 0.0, -0.59, -0.51, 0.0, 0.53, 1.88, 2.21, 2.53, 2.79, 4.11, 3.47, 2.82, 3.2, 3.91, 3.72, 2.69, 2.54, 2.83, 4.58, 8.0, 7.76, 7.82, 5.1, 3.45, 1.84, 0.85, 0.0, 0.0, 0.0, 0.0, -4.02, -1.03, -0.0, 1.98, 3.91, 4.43, 4.6, 4.66, 5.75, 6.21, 6.71, 7.37, 7.2, 7.2, 6.8, 6.4, 6.4, 6.94, 7.1, 6.26, 5.36, 5.29, 5.29, -6.97, -6.97, -7.27, -7.27, -7.3, -7.3, -7.6, -7.61, -7.93, -8.24, -7.96, -8.24, -8.24, -7.96, -8.23, -7.96, -7.95, -7.55, -7.55, -6.9, -6.9, -6.9, -6.88, -6.85, -6.36, -5.88, -5.7, -5.14, -4.4, -2.92, -2.29, -1.1, -1.1, -0.57, 0.0, 0.0, 0.0, 0.0, 0.0, 0.57, 0.59, 0.59, 1.11, 1.23, 0.55, 0.0, -1.13, -1.16, -0.54, 0.54, 1.61, 2.21, 2.21, 2.21, 1.88, 2.76, 3.0, 4.02, 4.43, 3.47, 1.96, 0.89, 0.89, 4.87, 7.76, 8.54, 5.89, 4.34, 2.57, 0.89, 0.0, 0.0, 0.0, 0.0, 0.0, 0.0, 0.0, -0.0, -0.0, 1.72, 2.99, 1.58, 1.7, 4.38, 5.36, 5.81, 6.51, 7.12, 7.12, 6.57, 6.57, 6.57, 7.12, 6.79, 6.07, 5.75, 5.75, 5.75, -6.97, -6.97, -7.27, -7.27, -7.3, -7.3, -7.6, -7.61, -7.93, -7.95, -7.96, -8.24, -8.24, -7.96, -8.23, -7.96, -8.22, -7.55, -7.55, -7.31, -6.9, -6.9, -6.88, -7.1, -6.4, -6.4, -5.73, -5.14, -4.63, -3.2, -2.14, -2.12, -1.73, -1.1, -0.57, -0.53, 0.0, 0.0, 0.0, 0.0, 0.0, 0.0, 0.59, 0.96, 1.84, 0.51, -1.2, -2.6, -0.89, 0.42, 1.9, 2.21, 2.23, 1.88, 1.2, 1.16, 2.8, 4.74, 3.63, 2.8, 0.95, 0.0, 1.84, 5.69, 7.82, 6.73, 6.18, 4.34, 0.85, 0.0, -1.75, -1.84, -1.75, -0.89, 0.0, 0.89, 3.45, 4.98, 0.96, -0.0, 1.99, 1.26, 0.89, 1.34, 4.47, 4.92, 5.75, 6.45, 6.16, 5.6, 4.89, 5.6, 5.75, 6.7, 6.28, 6.07, 5.75, 5.75, -6.97, -6.97, -7.27, -7.27, -7.3, -7.3, -7.6, -7.32, -7.93, -7.95, -8.24, -7.96, -8.24, -7.96, -8.23, -7.96, -8.22, -7.55, -7.55, -7.55, -6.9, -6.9, -6.9, -6.88, -6.43, -6.43, -6.43, -5.83, -4.42, -2.96, -2.32, -2.29, -2.26, -2.26, -1.63, -1.12, -0.57, -0.58, -0.54, 0.0, 0.0, 0.0, 0.0, 0.0, 1.13, 0.95, -0.96, -1.79, 0.0, 1.6, 2.5, 2.23, 2.23, 1.84, 1.16, 1.16, 1.16, 1.84, 2.99, 2.16, 0.95, 0.0, 3.4, 6.45, 6.01, 5.53, 5.1, 5.46, 1.84, -0.94, -1.95, -0.89, 0.0, 0.0, 0.0, 0.0, 3.6, 7.15, 6.45, 2.4, 0.88, -0.0, -0.0, 0.0, 1.34, 4.02, 3.95, 4.15, 3.93, 2.95, 2.53, 3.79, 5.2, 7.12, 6.79, 6.51, 6.51, 6.51, -6.97, -6.97, -7.27, -7.27, -7.59, -7.3, -7.6, -7.32, -7.93, -7.95, -7.95, -8.24, -8.24, -8.24, -7.96, -8.23, -7.96, -7.55, -7.55, -7.55, -6.9, -6.9, -6.9, -6.88, -6.88, -6.43, -6.22, -5.17, -4.42, -3.42, -2.77, -2.75, -2.92, -2.92, -2.26, -1.63, -1.76, -1.12, -1.05, -0.54, -0.55, -0.57, -0.59, 0.0, -0.51, -0.95, 0.0, 0.0, 0.6, 1.61, 2.23, 2.23, 1.6, 1.84, 1.33, 1.16, 0.61, 0.61, 0.61, 1.05, 0.0, 1.73, 4.26, 5.1, 4.26, 3.4, 2.82, 4.14, 4.14, 1.73, 0.96, 2.82, 3.8, 2.7, 1.68, 0.85, 3.22, 6.45, 7.37, 5.73, 0.88, -0.98, -0.42, -0.4, -0.0, 0.45, 0.4, 1.74, 1.8, 0.88, 0.0, 2.0, 4.22, 6.02, 6.79, 6.79, 6.98, 6.98, -6.97, -6.97, -7.27, -7.27, -7.59, -7.3, -7.6, -7.32, -7.93, -7.95, -7.95, -8.24, -7.96, -8.24, -7.96, -8.23, -7.96, -8.22, -7.55, -7.55, -7.31, -6.9, -6.9, -7.13, -6.88, -6.22, -6.25, -5.2, -5.93, -3.83, -3.84, -4.08, -3.4, -3.4, -2.92, -2.26, -2.26, -1.76, -1.65, -1.05, -1.07, -1.08, -1.11, -1.13, -1.58, -1.73, -0.53, 0.53, 1.07, 1.57, 1.8, 1.8, 1.11, 1.27, 1.13, 1.13, 0.51, 0.61, 0.0, 0.0, 0.0, 1.73, 3.6, 3.09, 2.54, 1.65, 0.89, 0.0, 1.58, 2.69, 3.77, 5.53, 5.46, 3.77, 2.49, 1.68, 3.0, 5.26, 5.81, 5.36, 2.84, -0.0, -0.98, -0.57, -0.63, -0.45, -0.6, 0.0, 0.0, 0.0, -0.81, 0.0, 4.38, 5.75, 6.28, 6.79, 6.79, 6.79, -6.97, -6.97, -7.27, -7.27, -7.59, -7.3, -7.6, -7.6, -7.93, -8.24, -7.95, -8.24, -8.24, -7.96, -8.24, -8.23, -7.96, -7.96, -7.57, -7.55, -7.55, -7.31, -6.9, -7.13, -6.9, -6.46, -6.27, -5.67, -5.06, -6.33, -4.21, -3.85, -3.84, -3.83, -3.4, -2.92, -2.75, -2.26, -2.29, -1.67, -1.7, -1.07, -1.08, -1.08, -1.76, -1.55, -0.53, 0.0, 1.12, 1.16, 1.08, 1.11, 0.57, 0.57, 0.51, 0.51, 0.51, 0.59, 0.0, 0.0, 0.0, 1.96, 2.54, 1.73, 0.94, 0.0, 0.0, 0.0, 0.0, 1.26, 3.63, 4.34, 3.32, 1.76, 1.7, 1.63, 2.57, 3.91, 4.02, 3.9, 3.47, 2.21, -0.0, -0.87, -0.95, -1.79, -2.17, -1.58, 0.0, -0.96, -1.99, 0.0, 4.02, 5.36, 5.75, 6.94, 6.79, 6.79, -6.97, -6.97, -7.27, -7.27, -7.59, -7.3, -7.6, -7.6, -7.93, -7.93, -7.95, -7.95, -8.24, -7.96, -8.24, -7.96, -8.23, -7.96, -7.96, -7.83, -7.55, -7.31, -6.9, -6.9, -6.9, -6.46, -6.27, -5.67, -5.46, -4.44, -4.08, -3.47, -3.84, -3.85, -3.84, -3.4, -3.4, -2.75, -2.77, -2.14, -1.67, -1.7, -1.7, -1.73, -1.73, -1.07, -1.05, -0.58, 0.0, 0.0, 0.0, 0.0, 0.0, 0.0, 0.57, 0.57, 0.0, 0.0, 0.0, 0.0, 1.32, 2.66, 2.66, 2.82, 0.95, 0.0, 0.0, 0.0, 0.0, 1.4, 2.69, 2.7, 2.58, 0.85, 0.86, 2.44, 3.16, 2.69, 2.21, 1.9, 2.4, 2.68, 1.58, -0.0, -2.53, -2.68, -2.65, -2.68, -1.99, -1.72, -1.99, 0.0, 3.6, 4.85, 5.36, 6.07, 6.51, 6.51, -6.97, -6.97, -7.27, -7.27, -7.59, -7.3, -7.3, -7.6, -7.93, -7.93, -7.95, -7.95, -8.24, -8.24, -7.96, -8.24, -8.23, -7.96, -7.96, -7.57, -7.57, -7.31, -6.9, -6.9, -6.9, -6.46, -6.27, -5.67, -5.72, -4.69, -3.4, -2.59, -2.82, -3.22, -3.45, -3.84, -3.4, -3.4, -2.75, -2.77, -2.32, -2.16, -1.84, -1.7, -1.7, -1.16, -1.14, -1.14, -0.53, -0.54, -0.54, 0.0, 0.0, 0.0, 0.0, 0.0, 0.0, 0.0, 0.0, 0.0, 0.57, 2.66, 2.66, 1.4, 1.25, 1.25, 0.89, 1.65, 0.89, 0.89, 1.58, 2.58, 1.22, 0.82, 0.8, 1.64, 2.44, 1.69, 0.0, -0.0, -0.0, 0.0, -0.0, -0.0, -1.74, -3.09, -3.13, -4.29, -1.84, -1.72, -0.96, 2.68, 4.4, 4.38, 4.92, 5.36, 6.07, 6.07, -6.67, -6.67, -7.27, -7.27, -7.59, -7.59, -7.3, -7.6, -7.93, -7.93, -7.95, -7.95, -8.24, -8.24, -8.24, -7.96, -8.23, -8.23, -7.96, -7.57, -7.57, -7.31, -7.31, -6.9, -6.9, -6.9, -6.27, -5.67, -5.08, -4.45, -3.83, -2.75, -2.77, -2.8, -2.82, -3.22, -3.42, -3.42, -3.2, -2.96, -2.77, -2.32, -1.67, -1.67, -2.16, -2.32, -1.8, -1.67, -1.67, -1.16, -1.19, -0.55, -0.57, 0.0, 0.0, 0.0, 0.0, 0.0, 0.0, 0.0, 0.59, 1.11, 1.4, 0.95, 0.89, 1.4, 1.84, 1.75, 0.85, 0.89, 0.0, 0.89, 1.28, 1.63, 0.83, 0.83, 0.86, 0.0, -1.03, -1.58, -0.0, -0.0, -0.0, 1.58, -0.0, -3.13, -3.82, 0.0, 0.0, 0.0, 0.0, 4.02, 4.4, 4.57, 4.47, 4.47, 5.09, 5.09, -6.95, -6.95, -7.27, -7.27, -7.27, -7.59, -7.3, -7.6, -7.63, -7.93, -8.24, -7.95, -7.95, -8.24, -8.24, -7.96, -7.96, -8.23, -7.96, -7.96, -7.57, -7.57, -7.31, -6.9, -6.9, -6.9, -6.27, -5.67, -5.08, -4.71, -4.05, -4.05, -3.4, -2.75, -2.8, -2.8, -3.45, -3.21, -3.42, -2.96, -2.77, -2.77, -2.32, -2.54, -1.7, -2.6, -2.8, -2.8, -2.36, -2.18, -1.73, -1.08, -1.11, -0.57, 0.0, 0.0, 0.0, 0.0, 0.0, 0.59, 0.59, 0.59, 0.0, 0.0, 0.89, 1.4, 0.94, 0.0, 0.0, 0.0, 0.0, 0.89, 1.22, 2.52, 1.64, 0.0, 0.0, 0.0, 0.0, -0.0, -0.0, -0.0, 1.58, 2.68, 3.13, 2.21, 0.99, 1.08, 0.96, 0.96, 3.48, 4.92, 4.98, 4.4, 4.92, 4.02, 3.9, 4.38, -6.95, -6.95, -7.27, -7.27, -7.27, -7.59, -7.3, -7.6, -7.9, -7.93, -8.24, -7.95, -7.95, -8.24, -8.24, -7.96, -8.24, -8.23, -8.23, -7.96, -7.57, -7.57, -7.57, -6.9, -6.9, -6.9, -6.27, -5.67, -5.32, -4.45, -4.46, -4.05, -3.81, -3.18, -2.75, -2.77, -2.77, -2.77, -2.77, -2.77, -2.77, -3.0, -2.8, -2.54, -1.07, -2.16, -3.22, -3.84, -3.22, -2.61, -2.22, -1.58, -1.11, -0.57, 0.0, 0.0, 0.0, 0.0, 0.0, 0.0, 0.59, 0.59, 1.32, 0.0, 0.0, 0.0, 0.0, 0.0, 0.0, 0.0, 0.84, 1.4, 1.33, 1.69, 2.44, 1.63, 0.0, -1.75, 0.0, 1.13, 2.21, 2.8, 2.97, 3.13, 2.97, 2.53, 1.8, 0.96, 0.88, 2.76, 4.98, 5.81, 5.26, 4.4, 4.47, 3.9, 3.9, 3.9, -6.95, -6.95, -7.27, -7.27, -7.27, -7.59, -7.3, -7.6, -7.9, -7.93, -7.93, -8.24, -7.95, -8.24, -8.24, -8.24, -8.24, -8.24, -8.23, -8.23, -7.57, -7.57, -7.57, -7.57, -6.9, -6.67, -6.27, -6.07, -5.46, -5.09, -4.46, -4.05, -4.05, -3.81, -3.37, -3.4, -2.75, -2.75, -2.77, -2.77, -2.77, -2.8, -2.82, -2.36, -1.75, -1.05, -2.84, -3.73, -3.43, -2.84, -2.23, -1.6, -1.13, -0.59, 0.0, 0.0, 0.0, 0.0, 0.0, 0.0, 0.59, 0.59, 0.57, 0.0, 0.0, 0.0, 0.0, 0.0, 0.0, 0.89, 0.89, 0.84, 0.0, 1.22, 2.52, 3.25, 0.85, -2.2, -1.6, 1.66, 2.23, 2.98, 2.97, 2.68, 2.4, 0.99, 0.0, 0.0, 1.99, 3.79, 5.51, 6.17, 5.36, 4.34, 4.47, 4.34, 2.98, 3.9, -6.95, -6.95, -6.97, -7.27, -7.27, -7.59, -7.3, -7.6, -7.9, -7.93, -7.93, -8.24, -7.95, -7.95, -8.24, -8.24, -7.96, -8.24, -8.23, -8.23, -7.57, -7.57, -7.57, -7.57, -7.16, -6.92, -6.27, -6.07, -5.46, -5.09, -4.45, -4.46, -4.05, -3.81, -3.81, -3.37, -3.37, -2.73, -2.92, -2.75, -2.75, -2.77, -2.82, -2.82, -2.8, -2.57, -1.58, -2.4, -2.63, -2.4, -1.61, -1.0, -0.61, -0.59, 0.0, 0.0, 0.0, 0.0, 0.0, 0.0, 0.0, 0.51, 0.0, 0.0, 0.0, 0.0, 0.0, 0.0, 0.0, 0.89, 0.89, 0.0, 0.0, 0.0, 1.39, 4.05, 3.4, 1.08, 3.13, 3.82, 1.98, 1.98, 2.21, 2.24, 1.58, 0.99, 1.08, 2.2, 3.22, 4.29, 4.98, 5.51, 5.29, 4.47, 4.02, 3.82, 2.84, 2.84, -6.95, -6.95, -6.95, -7.27, -7.27, -7.59, -7.59, -7.6, -7.9, -8.22, -7.93, -8.24, -7.95, -7.95, -8.24, -8.24, -7.96, -8.24, -8.24, -8.23, -8.23, -7.57, -7.57, -7.57, -7.16, -6.92, -6.94, -6.31, -5.7, -5.08, -5.09, -4.45, -4.45, -3.81, -3.81, -4.03, -3.56, -3.37, -2.89, -2.73, -2.92, -2.75, -2.8, -3.22, -3.84, -2.75, -1.05, -1.16, -1.24, -1.61, -1.61, -1.0, -0.61, 0.0, 0.0, 0.0, 0.0, 0.0, 0.0, 0.0, 0.0, 0.0, 0.59, 0.0, 0.0, 1.4, 1.25, 0.0, 0.89, 0.89, 0.0, 0.0, -1.26, -0.89, 0.0, 1.33, 3.45, 4.5, 4.5, 5.24, 4.22, 3.13, 1.4, 1.58, 2.24, 2.53, 2.23, 3.48, 3.79, 3.93, 4.82, 5.26, 5.26, 4.47, 2.8, 2.53, 2.53, 2.53, -6.95, -6.95, -6.95, -7.27, -7.27, -7.59, -7.59, -7.3, -7.9, -7.9, -7.93, -8.24, -8.24, -7.95, -8.24, -8.24, -8.24, -8.24, -8.24, -7.96, -7.96, -7.57, -7.57, -7.57, -7.57, -6.92, -6.94, -6.31, -5.7, -5.46, -5.09, -5.09, -4.45, -4.45, -4.03, -4.03, -4.03, -3.35, -3.35, -3.35, -2.89, -2.73, -2.96, -2.77, -3.42, -3.18, -2.23, -1.1, -1.05, -1.19, -1.23, -1.11, -0.59, -0.51, 0.0, 0.0, 0.0, 0.0, 0.0, 0.0, 0.0, 0.0, 0.0, 1.32, 1.32, 1.4, 1.49, 1.25, 1.73, 0.84, 0.0, -0.89, -1.67, -1.67, -1.67, 0.0, 2.47, 4.25, 4.92, 4.92, 5.21, 3.35, 2.24, 1.2, 1.58, 2.68, 3.39, 3.16, 3.48, 4.4, 4.34, 4.34, 4.0, 3.58, 2.8, 2.21, 2.21, 2.21, -6.95, -6.95, -6.95, -7.27, -7.27, -7.27, -7.59, -7.3, -7.9, -7.9, -7.93, -7.93, -8.24, -7.95, -8.24, -8.24, -8.24, -7.96, -8.24, -7.6, -7.33, -7.59, -7.57, -7.57, -7.57, -6.92, -6.94, -6.31, -6.34, -5.72, -5.08, -5.34, -5.09, -4.45, -4.45, -4.03, -4.03, -3.8, -3.35, -3.35, -3.35, -3.37, -3.4, -3.2, -3.2, -3.4, -2.89, -2.37, -1.71, -1.73, -1.65, -1.16, -0.55, -0.57, -0.57, 0.0, 0.0, 0.0, 0.0, 0.0, 0.0, 0.0, 0.0, 0.59, 2.66, 2.66, 1.4, 0.95, 0.89, 0.0, 0.0, -1.75, -2.69, -2.57, -1.75, 0.0, 1.68, 2.49, 3.39, 4.44, 4.25, 3.15, 1.13, 1.58, 1.9, 2.4, 2.68, 2.53, 3.35, 4.24, 5.09, 3.35, 4.24, 3.82, 3.6, 3.2, 3.2, 3.2, -6.95, -6.95, -6.95, -7.27, -7.27, -7.27, -7.59, -7.3, -7.9, -7.9, -7.93, -7.93, -8.24, -7.95, -8.56, -8.56, -8.56, -7.96, -7.96, -7.96, -7.6, -7.33, -7.33, -7.59, -7.19, -6.94, -6.94, -6.96, -6.33, -6.08, -5.72, -5.46, -5.34, -5.09, -4.45, -4.45, -3.8, -4.0, -4.0, -4.0, -3.52, -3.35, -3.37, -3.37, -3.4, -3.4, -2.73, -2.89, -2.23, -1.71, -1.73, -1.12, -1.14, -1.07, -0.55, -0.63, -0.57, -0.57, 0.0, 0.0, 0.0, 0.0, 0.0, 0.61, 1.58, 1.4, 0.0, 0.0, 0.0, 0.0, -1.75, -2.69, -1.84, -1.67, -0.89, 0.0, 0.89, 1.69, 2.49, 3.39, 3.39, 3.36, 1.03, 2.24, 2.21, 2.4, 2.24, 2.4, 2.8, 4.47, 4.8, 4.4, 5.26, 4.4, 4.4, 4.24, 4.24, 4.24, -6.95, -6.95, -6.95, -7.23, -7.27, -7.27, -7.59, -7.59, -7.9, -7.9, -8.22, -7.93, -8.24, -8.24, -8.56, -8.56, -8.56, -8.56, -8.24, -7.33, -7.33, -7.6, -6.94, -6.94, -6.94, -6.94, -6.7, -6.7, -6.71, -6.34, -6.35, -5.72, -5.46, -5.34, -5.09, -4.69, -4.44, -4.0, -4.0, -4.0, -4.0, -4.0, -4.03, -4.03, -3.37, -3.37, -3.37, -3.37, -2.89, -2.23, -2.26, -1.63, -1.65, -1.14, -1.07, -1.08, -0.57, -0.57, -0.57, 0.0, 0.0, 0.0, 0.0, 0.53, 1.13, 0.0, 0.0, -1.25, -1.32, -1.75, -2.69, -1.84, -1.67, -0.89, 0.0, 0.0, 0.89, 0.85, 1.69, 2.49, 2.6, 2.49, 0.89, 0.0, 0.99, 2.4, 2.24, 2.24, 2.68, 3.58, 4.24, 4.82, 5.26, 4.98, 4.4, 4.82, 4.82, 4.82, -6.95, -6.95, -6.95, -7.23, -7.27, -7.27, -7.59, -7.59, -7.9, -7.9, -8.22, -7.93, -8.24, -8.24, -8.56, -8.56, -8.56, -8.24, -7.95, -7.61, -7.33, -7.33, -7.22, -6.94, -6.94, -6.94, -6.7, -6.7, -6.71, -6.7, -6.35, -6.08, -5.72, -5.46, -5.34, -5.09, -4.44, -4.44, -4.66, -3.97, -3.97, -4.0, -4.0, -4.03, -3.81, -3.37, -3.37, -3.37, -3.37, -2.89, -2.73, -2.26, -1.76, -1.65, -1.7, -1.19, -1.23, -0.57, -0.57, -0.57, 0.0, 0.0, 0.0, 0.65, 1.0, 0.0, 0.0, -1.25, -1.32, -0.89, -0.89, -0.85, -0.89, -0.85, 0.0, 0.0, 0.0, 0.89, 1.62, 1.69, 2.49, 2.49, 0.94, -1.79, -0.0, 1.74, 2.24, 2.24, 2.24, 2.68, 4.02, 4.47, 4.77, 4.4, 4.4, 5.36, 5.36, 5.36, -6.64, -6.64, -6.95, -7.23, -7.27, -7.27, -7.59, -7.59, -7.59, -7.9, -8.22, -7.93, -8.24, -8.53, -8.85, -8.56, -8.56, -7.95, -7.95, -7.61, -7.61, -7.33, -7.6, -7.22, -6.94, -6.94, -6.7, -6.7, -6.71, -6.98, -6.98, -6.35, -5.72, -5.72, -5.72, -5.34, -5.08, -5.08, -4.66, -4.63, -4.63, -4.42, -4.44, -4.0, -4.03, -3.81, -3.37, -3.37, -3.37, -3.37, -2.92, -2.75, -2.29, -2.32, -1.7, -1.73, -1.08, -1.23, -1.11, -0.57, -0.57, 0.0, 0.0, 0.0, 0.0, 0.0, 0.0, 0.0, 0.0, -0.89, -1.75, -1.68, -0.85, -0.85, -0.85, 0.0, 0.0, 0.85, 1.68, 1.76, 2.59, 3.36, 1.84, -1.4, -0.0, 0.98, 2.24, 2.4, 2.8, 2.68, 2.97, 4.02, 4.02, 3.82, 4.92, 5.81, 5.81, 5.81, -6.64, -6.64, -6.95, -7.23, -7.55, -7.27, -7.27, -7.59, -7.59, -7.9, -8.22, -7.93, -8.24, -8.53, -8.85, -8.56, -7.95, -7.95, -7.61, -7.61, -7.61, -7.33, -7.6, -7.6, -7.22, -6.94, -6.96, -6.96, -6.97, -6.98, -6.98, -6.35, -6.35, -5.72, -5.72, -5.72, -5.08, -5.08, -5.08, -5.06, -5.06, -4.63, -4.42, -4.44, -4.03, -4.03, -4.03, -4.03, -4.03, -3.37, -3.4, -2.75, -2.77, -2.36, -1.7, -1.73, -1.73, -1.08, -1.23, -1.11, -0.57, -0.59, 0.0, 0.0, 0.0, 0.0, 0.0, 0.0, 0.0, -1.75, -2.69, -3.32, -3.49, -1.68, -0.85, 0.0, 0.0, 0.0, 1.75, 1.68, 2.47, 2.47, 2.7, 0.0, -0.0, 1.2, 2.68, 3.13, 3.9, 3.9, 3.13, 3.13, 3.13, 4.02, 4.92, 5.81, 5.81, 5.81, -6.64, -6.64, -6.95, -6.95, -7.55, -7.27, -7.27, -7.59, -7.86, -7.9, -8.22, -7.93, -8.24, -8.53, -8.53, -8.24, -8.24, -8.24, -7.95, -7.61, -7.61, -7.61, -7.6, -7.6, -7.6, -7.22, -6.96, -6.7, -6.71, -6.7, -6.98, -6.35, -6.35, -5.72, -5.72, -5.72, -5.72, -5.08, -5.08, -5.06, -5.06, -5.06, -5.06, -4.66, -4.44, -4.45, -4.03, -4.03, -4.03, -3.81, -3.4, -3.2, -2.77, -2.36, -2.18, -1.73, -1.73, -1.57, -1.76, -1.11, -1.11, -0.59, -0.61, -0.54, 0.0, 0.0, 0.0, 0.0, 0.0, -1.73, -2.67, -3.45, -4.56, -4.83, -2.47, -1.68, 0.0, 0.0, 0.89, 1.68, 1.68, 1.68, 1.68, 0.89, 2.0, 2.53, 2.97, 3.58, 4.02, 4.38, 3.9, 3.58, 4.02, 4.47, 5.26, 5.73, 5.73, 5.73, -6.64, -6.64, -6.95, -6.95, -7.23, -7.27, -7.27, -7.59, -7.86, -7.9, -8.22, -7.93, -8.53, -8.53, -8.53, -7.93, -7.93, -8.24, -7.95, -7.95, -7.95, -7.95, -7.6, -7.6, -7.6, -6.96, -6.96, -6.97, -6.71, -6.7, -6.69, -6.35, -6.35, -6.06, -5.72, -5.72, -5.72, -5.72, -5.46, -5.72, -5.46, -5.7, -5.06, -5.32, -5.08, -4.69, -4.45, -4.45, -4.03, -3.81, -4.05, -3.4, -2.77, -2.36, -2.18, -2.4, -2.2, -1.73, -1.57, -1.76, -1.11, -1.13, -1.16, -0.54, -0.57, 0.0, 0.0, 0.0, 0.0, 0.0, -0.94, -2.54, -3.45, -4.5, -4.2, -3.49, -1.75, 0.0, 0.0, 0.0, 0.85, 0.85, 0.85, 3.13, 2.53, 2.84, 2.98, 3.39, 3.58, 4.02, 4.02, 4.02, 4.47, 4.47, 5.26, 5.7, 5.7, 5.7, -6.92, -6.92, -6.95, -6.95, -7.23, -7.55, -7.27, -7.59, -7.86, -7.9, -8.22, -8.22, -8.53, -8.53, -7.93, -7.93, -7.93, -8.24, -7.95, -7.95, -7.95, -7.95, -7.6, -7.6, -7.33, -7.33, -6.96, -6.97, -6.98, -6.98, -6.69, -6.35, -6.06, -6.34, -6.34, -6.01, -5.72, -5.72, -5.46, -5.72, -5.72, -5.7, -5.46, -5.72, -5.08, -5.34, -4.69, -4.45, -4.45, -4.03, -4.05, -3.83, -2.8, -2.82, -2.36, -2.18, -2.4, -2.2, -2.2, -1.76, -1.58, -1.27, -1.13, -1.2, -0.57, -0.57, 0.0, 0.0, 0.0, 0.0, -0.84, -0.89, -0.89, 0.0, 0.0, -3.45, -1.67, -0.89, 0.0, 0.0, 0.0, 0.0, 0.0, -0.0, 0.88, 2.68, 2.84, 2.98, 3.39, 3.58, 3.58, 4.02, 4.47, 4.34, 4.4, 4.98, 4.98, 4.98, -6.92, -6.92, -6.95, -6.95, -7.23, -7.55, -7.27, -7.59, -7.86, -7.9, -8.22, -8.22, -8.53, -7.93, -7.93, -7.93, -8.24, -8.24, -8.24, -7.95, -7.95, -7.95, -7.95, -7.6, -7.33, -7.33, -6.96, -6.97, -6.98, -6.98, -6.97, -6.35, -6.34, -6.34, -6.04, -5.72, -5.72, -5.72, -5.72, -5.72, -5.72, -5.72, -5.72, -5.46, -5.08, -5.34, -5.09, -4.45, -4.45, -4.71, -4.46, -3.83, -3.45, -3.04, -2.82, -2.82, -2.4, -2.4, -2.2, -2.22, -1.58, -1.8, -1.6, -1.2, -1.24, -0.8, 0.0, 0.0, 0.0, -0.89, -0.84, 0.0, 0.0, 0.85, 1.67, 1.84, 0.0, 0.0, 0.0, 0.0, 0.0, 0.0, 0.84, 0.0, -0.0, 2.16, 3.48, 3.16, 3.35, 3.47, 3.9, 3.9, 4.34, 4.34, 4.4, 4.57, 4.57, 4.57, -6.92, -6.92, -6.64, -6.95, -7.23, -7.55, -7.27, -7.59, -8.19, -7.9, -7.9, -8.22, -8.22, -8.22, -7.93, -7.93, -8.24, -8.24, -8.24, -8.24, -7.95, -7.95, -7.95, -8.24, -7.33, -7.33, -7.61, -6.97, -6.98, -6.98, -6.97, -6.35, -6.34, -6.04, -5.72, -5.72, -5.72, -6.01, -5.72, -6.35, -6.08, -5.72, -5.72, -5.72, -5.34, -5.34, -5.09, -5.09, -4.83, -4.71, -4.46, -3.83, -3.45, -3.47, -2.82, -2.82, -2.84, -2.84, -2.61, -2.44, -2.22, -1.8, -1.6, -1.61, -1.24, -0.8, -0.8, 0.0, 0.0, -0.96, -0.89, 0.0, 0.0, 0.0, 0.89, 0.89, 0.0, 0.0, 0.0, 0.0, 0.0, 1.67, 2.57, 1.14, 1.27, 1.84, 2.53, 3.16, 2.84, 3.6, 3.6, 3.9, 3.6, 4.4, 4.8, 4.8, 4.8, 4.8, -6.92, -6.92, -6.64, -6.95, -7.23, -7.55, -7.27, -7.86, -8.19, -8.19, -7.9, -7.9, -7.9, -8.22, -7.93, -7.93, -7.93, -7.93, -7.93, -8.24, -8.24, -7.95, -7.95, -8.24, -7.61, -7.61, -7.61, -7.33, -6.98, -6.98, -6.67, -6.35, -6.34, -6.04, -6.04, -6.04, -5.72, -6.04, -6.34, -6.35, -6.0, -5.72, -5.72, -5.72, -5.72, -5.72, -5.09, -5.09, -5.09, -5.1, -4.71, -4.08, -4.1, -3.45, -3.47, -3.22, -3.08, -2.84, -2.84, -2.86, -2.22, -2.23, -1.8, -1.84, -1.61, -1.26, -0.8, -0.8, -1.0, -1.99, -0.95, -0.94, 0.0, 0.0, 0.0, 0.0, -0.85, 0.0, -0.85, 0.0, 0.85, 1.67, 2.57, 2.69, 2.53, 2.16, 2.4, 2.68, 2.68, 3.58, 3.6, 4.0, 4.15, 4.4, 4.29, 4.29, 4.29, 4.29, -6.92, -6.92, -6.92, -7.23, -7.23, -7.55, -7.27, -7.86, -7.86, -7.86, -8.19, -7.9, -7.9, -8.22, -7.93, -7.93, -7.93, -7.93, -7.93, -8.24, -8.24, -8.24, -7.95, -8.24, -7.95, -7.61, -7.61, -7.33, -6.98, -6.69, -6.67, -6.95, -6.34, -6.04, -6.32, -6.32, -6.32, -6.04, -6.34, -6.06, -5.72, -5.72, -5.72, -5.72, -5.72, -5.72, -5.72, -5.45, -5.09, -5.36, -5.1, -4.47, -4.1, -3.85, -3.47, -3.47, -3.49, -2.84, -2.84, -2.86, -2.86, -2.48, -2.23, -2.23, -2.21, -1.58, -1.26, -1.26, -1.9, -1.99, -0.89, 0.0, 0.0, 0.0, 0.0, 0.0, 0.0, 0.0, -0.94, 0.0, 0.85, 1.75, 1.75, 1.68, 2.16, 2.48, 1.84, 1.83, 1.66, 2.68, 3.16, 3.58, 4.22, 4.29, 4.29, 4.29, 4.29, 4.29, -6.92, -6.92, -6.92, -7.23, -7.23, -7.55, -8.15, -7.86, -7.86, -7.59, -8.19, -7.9, -8.22, -8.22, -8.22, -8.22, -8.22, -8.22, -7.93, -7.93, -8.24, -8.24, -7.95, -8.24, -7.95, -7.95, -7.61, -7.33, -7.32, -6.69, -6.67, -6.95, -6.34, -6.04, -6.32, -6.32, -6.32, -6.32, -6.04, -6.04, -6.01, -5.72, -5.72, -5.72, -5.72, -5.72, -5.72, -5.45, -5.45, -5.72, -5.1, -4.47, -4.47, -3.85, -4.12, -3.47, -3.49, -3.49, -3.22, -3.12, -2.86, -2.6, -2.48, -2.23, -2.23, -2.15, -1.86, -1.26, -1.9, -0.61, 0.0, 0.0, 0.0, 0.0, 0.0, 0.0, 0.0, 0.0, 0.85, 0.85, 0.89, 0.89, 0.81, 0.85, 0.89, 1.6, -0.0, 0.81, 0.88, 0.88, 1.66, 2.68, 2.95, 3.79, 3.79, 4.11, 4.11, 4.11, -6.92, -6.92, -6.92, -7.23, -7.23, -7.55, -7.81, -8.15, -7.59, -7.59, -8.19, -7.9, -8.22, -8.22, -8.22, -8.22, -8.22, -8.22, -8.22, -7.93, -8.53, -8.53, -8.53, -8.24, -7.95, -7.95, -7.61, -7.61, -7.32, -6.98, -6.97, -6.95, -6.34, -6.32, -6.32, -6.32, -6.32, -6.32, -6.32, -5.72, -5.72, -6.01, -5.72, -6.06, -6.06, -6.01, -5.72, -5.72, -5.72, -5.72, -5.44, -5.1, -4.75, -4.47, -4.12, -3.84, -4.12, -3.49, -3.22, -3.49, -3.2, -2.86, -2.86, -2.23, -2.51, -2.53, -2.23, -1.26, -1.26, -0.54, 0.0, 0.0, 0.96, 0.0, 0.0, 0.0, 0.0, 0.0, 0.0, 0.0, 0.89, 0.0, 0.0, 0.85, 0.89, 0.0, -0.96, -0.96, -0.0, -0.0, 0.88, 1.55, 1.83, 2.76, 3.35, 4.11, 4.11, 4.11, -6.92, -6.92, -7.51, -7.23, -7.23, -7.55, -7.55, -7.55, -7.27, -7.86, -8.19, -7.9, -7.9, -8.22, -8.22, -8.22, -8.22, -8.22, -8.22, -8.22, -8.53, -8.53, -8.53, -8.53, -7.95, -7.95, -7.95, -7.61, -7.32, -7.3, -6.97, -6.95, -6.34, -6.32, -6.32, -6.32, -6.32, -6.32, -6.32, -6.01, -6.04, -6.34, -6.34, -6.06, -6.34, -6.34, -5.72, -5.72, -5.72, -5.72, -5.71, -5.1, -5.08, -4.47, -4.45, -4.12, -4.12, -3.83, -3.78, -3.49, -3.49, -2.86, -2.86, -2.86, -2.58, -2.84, -2.5, -1.86, -1.2, -0.6, -0.71, 0.0, 0.0, 0.0, 0.0, 0.0, 0.0, 0.0, 0.0, 0.0, 0.0, 0.0, 0.0, 0.0, 0.94, 0.0, -2.48, -1.98, -1.03, -0.0, -0.0, 1.03, 1.84, 2.6, 4.01, 4.58, 4.58, 4.58, -6.92, -6.92, -7.51, -7.23, -7.23, -7.55, -7.55, -7.55, -7.27, -7.86, -8.19, -7.9, -7.9, -8.22, -8.22, -8.22, -8.22, -8.22, -8.22, -8.22, -8.53, -8.53, -8.53, -8.53, -7.95, -7.95, -7.95, -7.61, -7.32, -7.3, -6.97, -6.95, -6.34, -6.32, -6.32, -6.32, -6.32, -6.32, -6.32, -6.01, -6.04, -6.34, -6.34, -6.06, -6.34, -6.34, -5.72, -5.72, -5.72, -5.72, -5.71, -5.1, -5.08, -4.47, -4.45, -4.12, -4.12, -3.83, -3.78, -3.49, -3.49, -2.86, -2.86, -2.86, -2.58, -2.84, -2.5, -1.86, -1.2, -0.6, -0.71, 0.0, 0.0, 0.0, 0.0, 0.0, 0.0, 0.0, 0.0, 0.0, 0.0, 0.0, 0.0, 0.0, 0.85, 0.89, 0.0, -0.0, -0.0, -0.0, 0.95, 1.72, 3.0, 3.72, 4.58, 4.87, 4.87, 4.87]}]